Time,TemperatureF,DewpointF,PressureIn,WindDirection,WindDirectionDegrees,WindSpeedMPH,WindSpeedGustMPH,Humidity,HourlyPrecipIn,Conditions,Clouds,dailyrainin,SoftwareType,DateUTC
2013-09-10 00:00:00,79.5,71.3,29.96,East,88,0.0,0.0,76,0.00,,,0.00,Wunderground v.1.15,2013-09-10 04:00:00,
2013-09-10 00:01:00,79.5,71.3,29.96,East,88,0.0,0.0,76,0.00,,,0.00,Wunderground v.1.15,2013-09-10 04:01:00,
2013-09-10 00:03:00,79.4,71.2,29.96,East,93,0.0,0.0,76,0.00,,,0.00,Wunderground v.1.15,2013-09-10 04:03:00,
2013-09-10 00:05:00,79.4,71.2,29.96,East,96,0.0,1.0,76,0.00,,,0.00,Wunderground v.1.15,2013-09-10 04:05:00,
2013-09-10 00:07:00,79.4,71.2,29.96,East,96,0.0,1.0,76,0.00,,,0.00,Wunderground v.1.15,2013-09-10 04:07:00,
2013-09-10 00:09:00,79.3,71.1,29.96,East,96,0.0,1.0,76,0.00,,,0.00,Wunderground v.1.15,2013-09-10 04:09:00,
2013-09-10 00:12:00,79.2,71.0,29.96,East,96,0.0,0.0,76,0.00,,,0.00,Wunderground v.1.15,2013-09-10 04:12:00,
2013-09-10 00:15:00,79.0,70.8,29.96,East,96,0.0,0.0,76,0.00,,,0.00,Wunderground v.1.15,2013-09-10 04:15:00,
2013-09-10 00:17:00,78.8,71.0,29.96,East,96,0.0,0.0,77,0.00,,,0.00,Wunderground v.1.15,2013-09-10 04:17:00,
2013-09-10 00:21:00,78.6,71.2,29.96,East,96,0.0,0.0,78,0.00,,,0.00,Wunderground v.1.15,2013-09-10 04:21:00,
2013-09-10 00:22:00,78.6,71.5,29.96,East,96,0.0,0.0,79,0.00,,,0.00,Wunderground v.1.15,2013-09-10 04:22:00,
2013-09-10 00:23:00,78.6,71.5,29.96,East,96,0.0,0.0,79,0.00,,,0.00,Wunderground v.1.15,2013-09-10 04:23:00,
2013-09-10 00:25:00,78.6,71.5,29.96,East,96,0.0,0.0,79,0.00,,,0.00,Wunderground v.1.15,2013-09-10 04:25:00,
2013-09-10 00:26:00,78.6,71.9,29.96,East,96,0.0,0.0,80,0.00,,,0.00,Wunderground v.1.15,2013-09-10 04:26:00,
2013-09-10 00:27:00,78.5,71.8,29.96,East,96,0.0,0.0,80,0.00,,,0.00,Wunderground v.1.15,2013-09-10 04:27:00,
2013-09-10 00:32:00,78.2,71.9,29.95,East,96,0.0,5.0,81,0.00,,,0.00,Wunderground v.1.15,2013-09-10 04:32:00,
2013-09-10 00:33:00,78.2,71.9,29.96,East,96,0.0,5.0,81,0.00,,,0.00,Wunderground v.1.15,2013-09-10 04:33:00,
2013-09-10 00:36:00,78.0,71.7,29.96,East,96,0.0,5.0,81,0.00,,,0.00,Wunderground v.1.15,2013-09-10 04:36:00,
2013-09-10 00:39:00,77.9,71.6,29.96,East,96,0.0,5.0,81,0.00,,,0.00,Wunderground v.1.15,2013-09-10 04:39:00,
2013-09-10 00:40:00,77.9,71.6,29.95,East,96,0.0,5.0,81,0.00,,,0.00,Wunderground v.1.15,2013-09-10 04:40:00,
2013-09-10 00:41:00,77.8,71.5,29.96,East,96,0.0,5.0,81,0.00,,,0.00,Wunderground v.1.15,2013-09-10 04:41:00,
2013-09-10 00:42:00,77.7,71.4,29.95,East,96,0.0,5.0,81,0.00,,,0.00,Wunderground v.1.15,2013-09-10 04:42:00,
2013-09-10 00:45:00,77.7,72.1,29.95,NW,307,0.0,5.0,83,0.00,,,0.00,Wunderground v.1.15,2013-09-10 04:45:00,
2013-09-10 00:48:00,77.7,72.1,29.95,NW,307,0.0,5.0,83,0.00,,,0.00,Wunderground v.1.15,2013-09-10 04:48:00,
2013-09-10 00:49:00,77.7,72.1,29.95,NW,307,0.0,5.0,83,0.00,,,0.00,Wunderground v.1.15,2013-09-10 04:49:00,
2013-09-10 00:54:00,77.6,72.0,29.95,NW,307,0.0,5.0,83,0.00,,,0.00,Wunderground v.1.15,2013-09-10 04:54:00,
2013-09-10 00:55:00,77.5,71.9,29.95,NW,307,0.0,5.0,83,0.00,,,0.00,Wunderground v.1.15,2013-09-10 04:55:00,
2013-09-10 00:57:00,77.4,72.2,29.95,NW,307,0.0,5.0,84,0.00,,,0.00,Wunderground v.1.15,2013-09-10 04:57:00,
2013-09-10 00:58:00,77.4,72.2,29.95,NW,307,0.0,5.0,84,0.00,,,0.00,Wunderground v.1.15,2013-09-10 04:58:00,
2013-09-10 00:59:00,77.4,72.5,29.95,NW,307,0.0,5.0,85,0.00,,,0.00,Wunderground v.1.15,2013-09-10 04:59:00,
2013-09-10 01:02:00,77.3,72.4,29.95,NW,307,0.0,0.0,85,0.00,,,0.00,Wunderground v.1.15,2013-09-10 05:02:00,
2013-09-10 01:03:00,77.3,72.4,29.95,NW,307,0.0,0.0,85,0.00,,,0.00,Wunderground v.1.15,2013-09-10 05:03:00,
2013-09-10 01:04:00,77.3,72.4,29.95,NW,307,0.0,0.0,85,0.00,,,0.00,Wunderground v.1.15,2013-09-10 05:04:00,
2013-09-10 01:06:00,77.3,72.8,29.95,NW,307,0.0,0.0,86,0.00,,,0.00,Wunderground v.1.15,2013-09-10 05:06:00,
2013-09-10 01:08:00,77.2,72.7,29.95,NW,307,0.0,0.0,86,0.00,,,0.00,Wunderground v.1.15,2013-09-10 05:08:00,
2013-09-10 01:10:00,77.2,72.7,29.95,NW,307,0.0,0.0,86,0.00,,,0.00,Wunderground v.1.15,2013-09-10 05:10:00,
2013-09-10 01:11:00,77.2,72.7,29.95,NW,308,0.0,0.0,86,0.00,,,0.00,Wunderground v.1.15,2013-09-10 05:11:00,
2013-09-10 01:13:00,77.1,72.9,29.95,NW,308,0.0,0.0,87,0.00,,,0.00,Wunderground v.1.15,2013-09-10 05:13:00,
2013-09-10 01:16:00,77.0,72.8,29.95,NW,308,0.0,0.0,87,0.00,,,0.00,Wunderground v.1.15,2013-09-10 05:16:00,
2013-09-10 01:18:00,77.0,72.8,29.95,NW,307,0.0,0.0,87,0.00,,,0.00,Wunderground v.1.15,2013-09-10 05:18:00,
2013-09-10 01:19:00,77.0,73.2,29.95,NW,308,0.0,0.0,88,0.00,,,0.00,Wunderground v.1.15,2013-09-10 05:19:00,
2013-09-10 01:23:00,77.1,73.3,29.95,NW,324,0.0,0.0,88,0.00,,,0.00,Wunderground v.1.15,2013-09-10 05:23:00,
2013-09-10 01:24:00,77.1,73.3,29.95,NW,324,0.0,0.0,88,0.00,,,0.00,Wunderground v.1.15,2013-09-10 05:24:00,
2013-09-10 01:27:00,77.1,73.3,29.95,NNW,340,0.0,0.0,88,0.00,,,0.00,Wunderground v.1.15,2013-09-10 05:27:00,
2013-09-10 01:28:00,77.1,73.6,29.95,NNW,340,0.0,0.0,89,0.00,,,0.00,Wunderground v.1.15,2013-09-10 05:28:00,
2013-09-10 01:30:00,77.1,73.6,29.95,NNW,340,0.0,0.0,89,0.00,,,0.00,Wunderground v.1.15,2013-09-10 05:30:00,
2013-09-10 01:33:00,77.1,73.6,29.95,East,88,0.0,1.0,89,0.00,,,0.00,Wunderground v.1.15,2013-09-10 05:33:00,
2013-09-10 01:35:00,77.1,73.6,29.95,East,88,0.0,1.0,89,0.00,,,0.00,Wunderground v.1.15,2013-09-10 05:35:00,
2013-09-10 01:36:00,77.1,73.6,29.95,East,88,0.0,1.0,89,0.00,,,0.00,Wunderground v.1.15,2013-09-10 05:36:00,
2013-09-10 01:39:00,77.2,74.0,29.95,East,88,0.0,1.0,90,0.00,,,0.00,Wunderground v.1.15,2013-09-10 05:39:00,
2013-09-10 01:42:00,77.2,73.7,29.96,East,88,0.0,1.0,89,0.00,,,0.00,Wunderground v.1.15,2013-09-10 05:42:00,
2013-09-10 01:43:00,77.2,73.7,29.96,East,88,0.0,1.0,89,0.00,,,0.00,Wunderground v.1.15,2013-09-10 05:43:00,
2013-09-10 01:44:00,77.2,73.7,29.96,East,88,0.0,1.0,89,0.00,,,0.00,Wunderground v.1.15,2013-09-10 05:44:00,
2013-09-10 01:47:00,77.3,74.1,29.96,East,88,0.0,1.0,90,0.00,,,0.00,Wunderground v.1.15,2013-09-10 05:47:00,
2013-09-10 01:49:00,77.3,74.1,29.96,East,88,0.0,1.0,90,0.00,,,0.00,Wunderground v.1.15,2013-09-10 05:49:00,
2013-09-10 01:52:00,77.3,74.1,29.95,East,88,0.0,1.0,90,0.00,,,0.00,Wunderground v.1.15,2013-09-10 05:52:00,
2013-09-10 01:53:00,77.3,74.1,29.96,East,88,0.0,1.0,90,0.00,,,0.00,Wunderground v.1.15,2013-09-10 05:53:00,
2013-09-10 01:54:00,77.3,74.1,29.95,East,88,0.0,1.0,90,0.00,,,0.00,Wunderground v.1.15,2013-09-10 05:54:00,
2013-09-10 01:55:00,77.3,74.1,29.95,East,88,0.0,1.0,90,0.00,,,0.00,Wunderground v.1.15,2013-09-10 05:55:00,
2013-09-10 02:00:00,77.2,74.0,29.95,East,88,0.0,0.0,90,0.00,,,0.00,Wunderground v.1.15,2013-09-10 06:00:00,
2013-09-10 02:02:00,77.2,74.0,29.95,East,88,0.0,0.0,90,0.00,,,0.00,Wunderground v.1.15,2013-09-10 06:02:00,
2013-09-10 02:03:00,77.2,74.0,29.95,East,88,0.0,0.0,90,0.00,,,0.00,Wunderground v.1.15,2013-09-10 06:03:00,
2013-09-10 02:05:00,77.2,74.4,29.95,East,88,0.0,0.0,91,0.00,,,0.00,Wunderground v.1.15,2013-09-10 06:05:00,
2013-09-10 02:06:00,77.2,74.4,29.95,East,88,0.0,0.0,91,0.00,,,0.00,Wunderground v.1.15,2013-09-10 06:06:00,
2013-09-10 02:07:00,77.2,74.4,29.95,East,88,0.0,0.0,91,0.00,,,0.00,Wunderground v.1.15,2013-09-10 06:07:00,
2013-09-10 02:08:00,77.2,74.4,29.95,East,88,0.0,0.0,91,0.00,,,0.00,Wunderground v.1.15,2013-09-10 06:08:00,
2013-09-10 02:11:00,77.1,74.3,29.95,East,88,0.0,0.0,91,0.00,,,0.00,Wunderground v.1.15,2013-09-10 06:11:00,
2013-09-10 02:14:00,77.1,74.3,29.95,East,88,0.0,0.0,91,0.00,,,0.00,Wunderground v.1.15,2013-09-10 06:14:00,
2013-09-10 02:15:00,77.1,74.3,29.95,NW,326,0.0,0.0,91,0.00,,,0.00,Wunderground v.1.15,2013-09-10 06:15:00,
2013-09-10 02:17:00,77.2,74.4,29.95,NNW,334,0.0,1.0,91,0.00,,,0.00,Wunderground v.1.15,2013-09-10 06:17:00,
2013-09-10 02:20:00,77.2,74.4,29.95,NNW,335,0.0,0.0,91,0.00,,,0.00,Wunderground v.1.15,2013-09-10 06:20:00,
2013-09-10 02:25:00,77.2,74.4,29.95,NNW,335,0.0,0.0,91,0.00,,,0.00,Wunderground v.1.15,2013-09-10 06:25:00,
2013-09-10 02:26:00,77.2,74.4,29.95,NNW,335,0.0,0.0,91,0.00,,,0.00,Wunderground v.1.15,2013-09-10 06:26:00,
2013-09-10 02:29:00,77.2,74.4,29.95,NNW,335,0.0,0.0,91,0.00,,,0.00,Wunderground v.1.15,2013-09-10 06:29:00,
2013-09-10 02:30:00,77.1,74.3,29.95,NNW,335,0.0,0.0,91,0.00,,,0.00,Wunderground v.1.15,2013-09-10 06:30:00,
2013-09-10 02:31:00,77.1,74.3,29.95,NNW,335,0.0,1.0,91,0.00,,,0.00,Wunderground v.1.15,2013-09-10 06:31:00,
2013-09-10 02:36:00,77.0,74.5,29.95,North,5,0.0,1.0,92,0.00,,,0.00,Wunderground v.1.15,2013-09-10 06:36:00,
2013-09-10 02:37:00,77.0,74.5,29.95,North,5,0.0,1.0,92,0.00,,,0.00,Wunderground v.1.15,2013-09-10 06:37:00,
2013-09-10 02:39:00,77.0,74.5,29.95,North,5,0.0,1.0,92,0.00,,,0.00,Wunderground v.1.15,2013-09-10 06:39:00,
2013-09-10 02:40:00,77.0,74.5,29.95,North,5,0.0,1.0,92,0.00,,,0.00,Wunderground v.1.15,2013-09-10 06:40:00,
2013-09-10 02:41:00,77.0,74.5,29.95,North,5,0.0,1.0,92,0.00,,,0.00,Wunderground v.1.15,2013-09-10 06:41:00,
2013-09-10 02:42:00,77.0,74.5,29.95,North,5,0.0,1.0,92,0.00,,,0.00,Wunderground v.1.15,2013-09-10 06:42:00,
2013-09-10 02:44:00,77.0,74.5,29.95,North,5,0.0,1.0,92,0.00,,,0.00,Wunderground v.1.15,2013-09-10 06:44:00,
2013-09-10 02:46:00,76.9,74.4,29.95,North,5,0.0,1.0,92,0.00,,,0.00,Wunderground v.1.15,2013-09-10 06:46:00,
2013-09-10 02:47:00,76.9,74.4,29.95,North,5,0.0,1.0,92,0.00,,,0.00,Wunderground v.1.15,2013-09-10 06:47:00,
2013-09-10 02:49:00,76.9,74.4,29.95,North,4,0.0,1.0,92,0.00,,,0.00,Wunderground v.1.15,2013-09-10 06:49:00,
2013-09-10 02:51:00,76.9,74.4,29.95,North,4,0.0,1.0,92,0.00,,,0.00,Wunderground v.1.15,2013-09-10 06:51:00,
2013-09-10 02:52:00,76.9,74.4,29.95,North,4,0.0,1.0,92,0.00,,,0.00,Wunderground v.1.15,2013-09-10 06:52:00,
2013-09-10 02:55:00,76.9,74.4,29.95,North,4,0.0,1.0,92,0.00,,,0.00,Wunderground v.1.15,2013-09-10 06:55:00,
2013-09-10 02:57:00,76.8,74.3,29.94,North,4,0.0,1.0,92,0.00,,,0.00,Wunderground v.1.15,2013-09-10 06:57:00,
2013-09-10 02:59:00,76.8,74.3,29.94,North,4,0.0,1.0,92,0.00,,,0.00,Wunderground v.1.15,2013-09-10 06:59:00,
2013-09-10 03:01:00,76.7,74.2,29.94,North,4,0.0,0.0,92,0.00,,,0.00,Wunderground v.1.15,2013-09-10 07:01:00,
2013-09-10 03:02:00,76.8,74.6,29.95,North,4,0.0,0.0,93,0.00,,,0.00,Wunderground v.1.15,2013-09-10 07:02:00,
2013-09-10 03:05:00,76.8,74.6,29.94,North,4,0.0,0.0,93,0.00,,,0.00,Wunderground v.1.15,2013-09-10 07:05:00,
2013-09-10 03:07:00,76.9,74.7,29.94,North,4,0.0,0.0,93,0.00,,,0.00,Wunderground v.1.15,2013-09-10 07:07:00,
2013-09-10 03:11:00,76.9,74.7,29.94,North,4,0.0,0.0,93,0.00,,,0.00,Wunderground v.1.15,2013-09-10 07:11:00,
2013-09-10 03:14:00,76.9,74.7,29.94,North,4,0.0,0.0,93,0.00,,,0.00,Wunderground v.1.15,2013-09-10 07:14:00,
2013-09-10 03:15:00,76.9,74.7,29.94,North,4,0.0,0.0,93,0.00,,,0.00,Wunderground v.1.15,2013-09-10 07:15:00,
2013-09-10 03:16:00,76.9,74.7,29.94,North,4,0.0,0.0,93,0.00,,,0.00,Wunderground v.1.15,2013-09-10 07:16:00,
2013-09-10 03:17:00,76.8,74.6,29.94,North,4,0.0,0.0,93,0.00,,,0.00,Wunderground v.1.15,2013-09-10 07:17:00,
2013-09-10 03:20:00,76.8,74.6,29.94,North,4,0.0,0.0,93,0.00,,,0.00,Wunderground v.1.15,2013-09-10 07:20:00,
2013-09-10 03:22:00,76.8,74.6,29.94,North,4,0.0,0.0,93,0.00,,,0.00,Wunderground v.1.15,2013-09-10 07:22:00,
2013-09-10 03:23:00,76.8,74.6,29.94,North,4,0.0,0.0,93,0.00,,,0.00,Wunderground v.1.15,2013-09-10 07:23:00,
2013-09-10 03:24:00,76.8,74.6,29.94,North,4,0.0,0.0,93,0.00,,,0.00,Wunderground v.1.15,2013-09-10 07:24:00,
2013-09-10 03:26:00,76.8,74.6,29.94,North,4,0.0,0.0,93,0.00,,,0.00,Wunderground v.1.15,2013-09-10 07:26:00,
2013-09-10 03:28:00,76.8,74.6,29.94,North,4,0.0,0.0,93,0.00,,,0.00,Wunderground v.1.15,2013-09-10 07:28:00,
2013-09-10 03:29:00,76.8,74.6,29.94,North,4,0.0,0.0,93,0.00,,,0.00,Wunderground v.1.15,2013-09-10 07:29:00,
2013-09-10 03:32:00,76.9,74.7,29.94,North,4,0.0,1.0,93,0.00,,,0.00,Wunderground v.1.15,2013-09-10 07:32:00,
2013-09-10 03:35:00,76.8,74.6,29.93,North,4,0.0,1.0,93,0.00,,,0.00,Wunderground v.1.15,2013-09-10 07:35:00,
2013-09-10 03:38:00,76.8,74.6,29.93,North,4,0.0,1.0,93,0.00,,,0.00,Wunderground v.1.15,2013-09-10 07:38:00,
2013-09-10 03:39:00,76.8,74.6,29.93,North,4,0.0,1.0,93,0.00,,,0.00,Wunderground v.1.15,2013-09-10 07:39:00,
2013-09-10 03:40:00,76.8,74.6,29.93,North,4,0.0,1.0,93,0.00,,,0.00,Wunderground v.1.15,2013-09-10 07:40:00,
2013-09-10 03:41:00,76.8,74.6,29.93,North,4,0.0,1.0,93,0.00,,,0.00,Wunderground v.1.15,2013-09-10 07:41:00,
2013-09-10 03:45:00,76.8,74.6,29.93,WNW,301,0.0,1.0,93,0.00,,,0.00,Wunderground v.1.15,2013-09-10 07:45:00,
2013-09-10 03:46:00,76.8,74.6,29.93,WNW,301,0.0,1.0,93,0.00,,,0.00,Wunderground v.1.15,2013-09-10 07:46:00,
2013-09-10 03:48:00,76.8,74.6,29.93,WNW,301,0.0,1.0,93,0.00,,,0.00,Wunderground v.1.15,2013-09-10 07:48:00,
2013-09-10 03:53:00,76.8,74.6,29.93,WNW,302,0.0,1.0,93,0.00,,,0.00,Wunderground v.1.15,2013-09-10 07:53:00,
2013-09-10 03:54:00,76.8,74.6,29.93,WNW,302,0.0,1.0,93,0.00,,,0.00,Wunderground v.1.15,2013-09-10 07:54:00,
2013-09-10 03:55:00,76.8,74.6,29.94,WNW,302,0.0,1.0,93,0.00,,,0.00,Wunderground v.1.15,2013-09-10 07:55:00,
2013-09-10 03:56:00,76.9,74.7,29.93,WNW,302,0.0,1.0,93,0.00,,,0.00,Wunderground v.1.15,2013-09-10 07:56:00,
2013-09-10 04:00:00,76.8,74.6,29.93,WNW,302,0.0,0.0,93,0.00,,,0.00,Wunderground v.1.15,2013-09-10 08:00:00,
2013-09-10 04:02:00,76.8,74.6,29.93,WNW,301,0.0,0.0,93,0.00,,,0.00,Wunderground v.1.15,2013-09-10 08:02:00,
2013-09-10 04:03:00,76.9,74.7,29.93,WNW,302,0.0,0.0,93,0.00,,,0.00,Wunderground v.1.15,2013-09-10 08:03:00,
2013-09-10 04:05:00,76.9,74.7,29.93,WNW,302,0.0,0.0,93,0.00,,,0.00,Wunderground v.1.15,2013-09-10 08:05:00,
2013-09-10 04:07:00,76.9,74.7,29.93,WNW,302,0.0,0.0,93,0.00,,,0.00,Wunderground v.1.15,2013-09-10 08:07:00,
2013-09-10 04:09:00,76.9,74.7,29.93,WNW,302,0.0,1.0,93,0.00,,,0.00,Wunderground v.1.15,2013-09-10 08:09:00,
2013-09-10 04:11:00,76.8,74.6,29.93,WNW,302,0.0,1.0,93,0.00,,,0.00,Wunderground v.1.15,2013-09-10 08:11:00,
2013-09-10 04:12:00,76.8,74.6,29.93,WNW,302,0.0,1.0,93,0.00,,,0.00,Wunderground v.1.15,2013-09-10 08:12:00,
2013-09-10 04:14:00,76.8,74.6,29.93,WNW,302,0.0,1.0,93,0.00,,,0.00,Wunderground v.1.15,2013-09-10 08:14:00,
2013-09-10 04:17:00,76.8,74.6,29.93,WNW,302,0.0,1.0,93,0.00,,,0.00,Wunderground v.1.15,2013-09-10 08:17:00,
2013-09-10 04:19:00,76.7,74.5,29.93,WNW,302,0.0,1.0,93,0.00,,,0.00,Wunderground v.1.15,2013-09-10 08:19:00,
2013-09-10 04:21:00,76.7,74.5,29.94,WNW,302,0.0,0.0,93,0.00,,,0.00,Wunderground v.1.15,2013-09-10 08:21:00,
2013-09-10 04:25:00,76.7,74.5,29.93,WNW,302,0.0,0.0,93,0.00,,,0.00,Wunderground v.1.15,2013-09-10 08:25:00,
2013-09-10 04:27:00,76.6,74.4,29.93,WNW,302,0.0,0.0,93,0.00,,,0.00,Wunderground v.1.15,2013-09-10 08:27:00,
2013-09-10 04:30:00,76.6,74.4,29.93,WNW,302,0.0,0.0,93,0.00,,,0.00,Wunderground v.1.15,2013-09-10 08:30:00,
2013-09-10 04:31:00,76.6,74.4,29.93,WNW,302,0.0,1.0,93,0.00,,,0.00,Wunderground v.1.15,2013-09-10 08:31:00,
2013-09-10 04:32:00,76.6,74.4,29.93,WNW,302,0.0,1.0,93,0.00,,,0.00,Wunderground v.1.15,2013-09-10 08:32:00,
2013-09-10 04:33:00,76.6,74.4,29.93,WNW,302,0.0,1.0,93,0.00,,,0.00,Wunderground v.1.15,2013-09-10 08:33:00,
2013-09-10 04:36:00,76.6,74.4,29.93,WNW,302,0.0,1.0,93,0.00,,,0.00,Wunderground v.1.15,2013-09-10 08:36:00,
2013-09-10 04:38:00,76.6,74.4,29.93,WNW,302,0.0,1.0,93,0.00,,,0.00,Wunderground v.1.15,2013-09-10 08:38:00,
2013-09-10 04:40:00,76.6,74.4,29.93,NW,318,0.0,1.0,93,0.00,,,0.00,Wunderground v.1.15,2013-09-10 08:40:00,
2013-09-10 04:44:00,76.7,74.5,29.93,NW,326,0.0,1.0,93,0.00,,,0.00,Wunderground v.1.15,2013-09-10 08:44:00,
2013-09-10 04:46:00,76.7,74.5,29.93,NW,326,0.0,1.0,93,0.00,,,0.00,Wunderground v.1.15,2013-09-10 08:46:00,
2013-09-10 04:47:00,76.7,74.5,29.93,NW,326,0.0,1.0,93,0.00,,,0.00,Wunderground v.1.15,2013-09-10 08:47:00,
2013-09-10 04:52:00,76.6,74.4,29.93,NW,326,0.0,1.0,93,0.00,,,0.00,Wunderground v.1.15,2013-09-10 08:52:00,
2013-09-10 04:53:00,76.6,74.4,29.94,NW,326,0.0,1.0,93,0.00,,,0.00,Wunderground v.1.15,2013-09-10 08:53:00,
2013-09-10 04:55:00,76.6,74.4,29.94,NW,326,0.0,1.0,93,0.00,,,0.00,Wunderground v.1.15,2013-09-10 08:55:00,
2013-09-10 04:57:00,76.6,74.4,29.94,NW,326,0.0,1.0,93,0.00,,,0.00,Wunderground v.1.15,2013-09-10 08:57:00,
2013-09-10 04:58:00,76.5,74.3,29.94,NW,326,0.0,1.0,93,0.00,,,0.00,Wunderground v.1.15,2013-09-10 08:58:00,
2013-09-10 05:01:00,76.5,74.3,29.94,NW,326,0.0,0.0,93,0.00,,,0.00,Wunderground v.1.15,2013-09-10 09:01:00,
2013-09-10 05:02:00,76.5,74.3,29.94,NW,326,0.0,0.0,93,0.00,,,0.00,Wunderground v.1.15,2013-09-10 09:02:00,
2013-09-10 05:04:00,76.4,74.2,29.94,NW,325,0.0,0.0,93,0.00,,,0.00,Wunderground v.1.15,2013-09-10 09:04:00,
2013-09-10 05:05:00,76.5,74.3,29.94,NNW,339,0.0,1.0,93,0.00,,,0.00,Wunderground v.1.15,2013-09-10 09:05:00,
2013-09-10 05:06:00,76.5,74.3,29.94,North,360,0.0,2.0,93,0.00,,,0.00,Wunderground v.1.15,2013-09-10 09:06:00,
2013-09-10 05:08:00,76.6,74.4,29.94,NNE,33,1.0,2.0,93,0.00,,,0.00,Wunderground v.1.15,2013-09-10 09:08:00,
2013-09-10 05:12:00,76.9,74.4,29.94,ENE,70,1.0,2.0,92,0.00,,,0.00,Wunderground v.1.15,2013-09-10 09:12:00,
2013-09-10 05:14:00,77.0,74.5,29.94,ENE,62,1.0,2.0,92,0.00,,,0.00,Wunderground v.1.15,2013-09-10 09:14:00,
2013-09-10 05:15:00,77.1,74.3,29.94,ENE,62,1.0,2.0,91,0.00,,,0.00,Wunderground v.1.15,2013-09-10 09:15:00,
2013-09-10 05:19:00,77.2,74.0,29.94,ENE,62,0.0,2.0,90,0.00,,,0.00,Wunderground v.1.15,2013-09-10 09:19:00,
2013-09-10 05:20:00,77.2,74.0,29.94,ENE,62,0.0,0.0,90,0.00,,,0.00,Wunderground v.1.15,2013-09-10 09:20:00,
2013-09-10 05:21:00,77.2,74.0,29.94,ENE,63,0.0,0.0,90,0.00,,,0.00,Wunderground v.1.15,2013-09-10 09:21:00,
2013-09-10 05:22:00,77.2,74.0,29.94,ENE,62,0.0,0.0,90,0.00,,,0.00,Wunderground v.1.15,2013-09-10 09:22:00,
2013-09-10 05:26:00,77.3,73.8,29.94,NNW,339,0.0,1.0,89,0.00,,,0.00,Wunderground v.1.15,2013-09-10 09:26:00,
2013-09-10 05:27:00,77.3,73.8,29.94,NNW,339,0.0,1.0,89,0.00,,,0.00,Wunderground v.1.15,2013-09-10 09:27:00,
2013-09-10 05:28:00,77.4,73.9,29.94,NNW,339,0.0,1.0,89,0.00,,,0.00,Wunderground v.1.15,2013-09-10 09:28:00,
2013-09-10 05:30:00,77.3,73.8,29.94,NNW,347,0.0,0.0,89,0.00,,,0.00,Wunderground v.1.15,2013-09-10 09:30:00,
2013-09-10 05:31:00,77.3,73.8,29.94,East,93,0.0,1.0,89,0.00,,,0.00,Wunderground v.1.15,2013-09-10 09:31:00,
2013-09-10 05:34:00,77.2,73.7,29.94,East,93,0.0,1.0,89,0.00,,,0.00,Wunderground v.1.15,2013-09-10 09:34:00,
2013-09-10 05:36:00,77.1,73.6,29.94,East,93,0.0,1.0,89,0.00,,,0.00,Wunderground v.1.15,2013-09-10 09:36:00,
2013-09-10 05:37:00,77.1,73.6,29.94,NNW,332,0.0,1.0,89,0.00,,,0.00,Wunderground v.1.15,2013-09-10 09:37:00,
2013-09-10 05:38:00,77.1,73.6,29.94,NNW,332,0.0,1.0,89,0.00,,,0.00,Wunderground v.1.15,2013-09-10 09:38:00,
2013-09-10 05:42:00,76.9,73.4,29.94,NNW,331,0.0,1.0,89,0.00,,,0.00,Wunderground v.1.15,2013-09-10 09:42:00,
2013-09-10 05:43:00,76.9,73.4,29.94,NNW,331,0.0,1.0,89,0.00,,,0.00,Wunderground v.1.15,2013-09-10 09:43:00,
2013-09-10 05:44:00,76.8,73.3,29.94,NNW,331,0.0,1.0,89,0.00,,,0.00,Wunderground v.1.15,2013-09-10 09:44:00,
2013-09-10 05:47:00,76.7,73.2,29.94,NNW,331,0.0,1.0,89,0.00,,,0.00,Wunderground v.1.15,2013-09-10 09:47:00,
2013-09-10 05:48:00,76.7,73.2,29.94,NNW,331,0.0,1.0,89,0.00,,,0.00,Wunderground v.1.15,2013-09-10 09:48:00,
2013-09-10 05:49:00,76.7,73.5,29.94,NNW,331,0.0,1.0,90,0.00,,,0.00,Wunderground v.1.15,2013-09-10 09:49:00,
2013-09-10 05:51:00,76.6,73.4,29.94,NNW,331,0.0,1.0,90,0.00,,,0.00,Wunderground v.1.15,2013-09-10 09:51:00,
2013-09-10 05:52:00,76.5,73.3,29.94,NNW,331,0.0,1.0,90,0.00,,,0.00,Wunderground v.1.15,2013-09-10 09:52:00,
2013-09-10 05:55:00,76.4,73.2,29.94,NNW,331,0.0,1.0,90,0.00,,,0.00,Wunderground v.1.15,2013-09-10 09:55:00,
2013-09-10 05:56:00,76.4,73.2,29.94,NNW,331,0.0,1.0,90,0.00,,,0.00,Wunderground v.1.15,2013-09-10 09:56:00,
2013-09-10 05:57:00,76.4,73.2,29.94,NNW,331,0.0,1.0,90,0.00,,,0.00,Wunderground v.1.15,2013-09-10 09:57:00,
2013-09-10 06:00:00,76.2,73.1,29.94,NNW,331,0.0,0.0,90,0.00,,,0.00,Wunderground v.1.15,2013-09-10 10:00:00,
2013-09-10 06:01:00,76.2,73.1,29.94,NNW,331,0.0,0.0,90,0.00,,,0.00,Wunderground v.1.15,2013-09-10 10:01:00,
2013-09-10 06:04:00,76.2,73.4,29.95,NNW,331,0.0,0.0,91,0.00,,,0.00,Wunderground v.1.15,2013-09-10 10:04:00,
2013-09-10 06:05:00,76.1,73.3,29.95,NNW,331,0.0,0.0,91,0.00,,,0.00,Wunderground v.1.15,2013-09-10 10:05:00,
2013-09-10 06:10:00,76.1,73.3,29.95,NNW,331,0.0,0.0,91,0.00,,,0.00,Wunderground v.1.15,2013-09-10 10:10:00,
2013-09-10 06:11:00,76.1,73.3,29.95,NNW,331,0.0,0.0,91,0.00,,,0.00,Wunderground v.1.15,2013-09-10 10:11:00,
2013-09-10 06:12:00,76.1,73.3,29.95,NNW,331,0.0,0.0,91,0.00,,,0.00,Wunderground v.1.15,2013-09-10 10:12:00,
2013-09-10 06:14:00,76.1,73.6,29.95,NNW,331,0.0,0.0,92,0.00,,,0.00,Wunderground v.1.15,2013-09-10 10:14:00,
2013-09-10 06:16:00,76.2,73.7,29.95,NNW,331,0.0,0.0,92,0.00,,,0.00,Wunderground v.1.15,2013-09-10 10:16:00,
2013-09-10 06:18:00,76.3,73.8,29.95,NNW,331,0.0,0.0,92,0.00,,,0.00,Wunderground v.1.15,2013-09-10 10:18:00,
2013-09-10 06:20:00,76.4,73.9,29.95,NNW,331,0.0,0.0,92,0.00,,,0.00,Wunderground v.1.15,2013-09-10 10:20:00,
2013-09-10 06:21:00,76.4,73.9,29.95,NNW,331,0.0,0.0,92,0.00,,,0.00,Wunderground v.1.15,2013-09-10 10:21:00,
2013-09-10 06:22:00,76.4,73.9,29.95,NNW,331,0.0,0.0,92,0.00,,,0.00,Wunderground v.1.15,2013-09-10 10:22:00,
2013-09-10 06:23:00,76.4,73.9,29.95,NNW,331,0.0,0.0,92,0.00,,,0.00,Wunderground v.1.15,2013-09-10 10:23:00,
2013-09-10 06:24:00,76.5,74.0,29.94,NNW,331,0.0,0.0,92,0.00,,,0.00,Wunderground v.1.15,2013-09-10 10:24:00,
2013-09-10 06:27:00,76.5,74.0,29.95,NNW,331,0.0,0.0,92,0.00,,,0.00,Wunderground v.1.15,2013-09-10 10:27:00,
2013-09-10 06:28:00,76.5,74.0,29.95,NNW,331,0.0,0.0,92,0.00,,,0.00,Wunderground v.1.15,2013-09-10 10:28:00,
2013-09-10 06:32:00,76.5,74.0,29.95,NNW,331,0.0,2.0,92,0.00,,,0.00,Wunderground v.1.15,2013-09-10 10:32:00,
2013-09-10 06:33:00,76.5,74.0,29.95,NNW,331,0.0,2.0,92,0.00,,,0.00,Wunderground v.1.15,2013-09-10 10:33:00,
2013-09-10 06:36:00,76.4,73.9,29.95,NNW,331,0.0,2.0,92,0.00,,,0.00,Wunderground v.1.15,2013-09-10 10:36:00,
2013-09-10 06:39:00,76.4,73.9,29.95,NNW,331,0.0,2.0,92,0.00,,,0.00,Wunderground v.1.15,2013-09-10 10:39:00,
2013-09-10 06:40:00,76.4,74.2,29.95,NNW,331,0.0,2.0,93,0.00,,,0.00,Wunderground v.1.15,2013-09-10 10:40:00,
2013-09-10 06:41:00,76.4,74.2,29.95,NNW,331,0.0,2.0,93,0.00,,,0.00,Wunderground v.1.15,2013-09-10 10:41:00,
2013-09-10 06:44:00,76.3,74.1,29.95,NNW,331,0.0,2.0,93,0.00,,,0.00,Wunderground v.1.15,2013-09-10 10:44:00,
2013-09-10 06:47:00,76.3,74.1,29.95,NNW,331,0.0,2.0,93,0.00,,,0.00,Wunderground v.1.15,2013-09-10 10:47:00,
2013-09-10 06:48:00,76.4,74.5,29.95,NNW,331,0.0,2.0,94,0.00,,,0.00,Wunderground v.1.15,2013-09-10 10:48:00,
2013-09-10 06:53:00,76.4,74.5,29.95,NNW,331,0.0,2.0,94,0.00,,,0.00,Wunderground v.1.15,2013-09-10 10:53:00,
2013-09-10 06:55:00,76.5,74.6,29.96,NNW,331,0.0,2.0,94,0.00,,,0.00,Wunderground v.1.15,2013-09-10 10:55:00,
2013-09-10 06:58:00,76.5,74.6,29.96,NNW,331,0.0,2.0,94,0.00,,,0.00,Wunderground v.1.15,2013-09-10 10:58:00,
2013-09-10 07:00:00,76.5,74.6,29.96,NNW,331,0.0,0.0,94,0.00,,,0.00,Wunderground v.1.15,2013-09-10 11:00:00,
2013-09-10 07:01:00,76.5,74.6,29.96,NNW,331,0.0,0.0,94,0.00,,,0.00,Wunderground v.1.15,2013-09-10 11:01:00,
2013-09-10 07:02:00,76.5,74.6,29.96,NNW,331,0.0,0.0,94,0.00,,,0.00,Wunderground v.1.15,2013-09-10 11:02:00,
2013-09-10 07:06:00,76.4,74.5,29.96,NNW,331,0.0,0.0,94,0.00,,,0.00,Wunderground v.1.15,2013-09-10 11:06:00,
2013-09-10 07:08:00,76.4,74.5,29.96,NNW,331,0.0,0.0,94,0.00,,,0.00,Wunderground v.1.15,2013-09-10 11:08:00,
2013-09-10 07:09:00,76.4,74.5,29.96,NNW,331,0.0,0.0,94,0.00,,,0.00,Wunderground v.1.15,2013-09-10 11:09:00,
2013-09-10 07:10:00,76.4,74.5,29.97,NNW,331,0.0,0.0,94,0.00,,,0.00,Wunderground v.1.15,2013-09-10 11:10:00,
2013-09-10 07:13:00,76.4,74.5,29.97,NNW,331,0.0,0.0,94,0.00,,,0.00,Wunderground v.1.15,2013-09-10 11:13:00,
2013-09-10 07:14:00,76.4,74.9,29.97,NNW,331,0.0,0.0,95,0.00,,,0.00,Wunderground v.1.15,2013-09-10 11:14:00,
2013-09-10 07:15:00,76.5,75.0,29.97,NNW,331,0.0,0.0,95,0.00,,,0.00,Wunderground v.1.15,2013-09-10 11:15:00,
2013-09-10 07:19:00,76.6,75.1,29.97,NNW,331,0.0,0.0,95,0.00,,,0.00,Wunderground v.1.15,2013-09-10 11:19:00,
2013-09-10 07:20:00,76.6,75.1,29.97,NNW,331,0.0,0.0,95,0.00,,,0.00,Wunderground v.1.15,2013-09-10 11:20:00,
2013-09-10 07:21:00,76.7,75.2,29.97,NNW,331,0.0,0.0,95,0.00,,,0.00,Wunderground v.1.15,2013-09-10 11:21:00,
2013-09-10 07:25:00,76.9,75.4,29.97,NW,318,0.0,1.0,95,0.00,,,0.00,Wunderground v.1.15,2013-09-10 11:25:00,
2013-09-10 07:26:00,77.0,75.5,29.97,NW,319,0.0,1.0,95,0.00,,,0.00,Wunderground v.1.15,2013-09-10 11:26:00,
2013-09-10 07:28:00,77.1,75.6,29.97,NW,318,0.0,1.0,95,0.00,,,0.00,Wunderground v.1.15,2013-09-10 11:28:00,
2013-09-10 07:29:00,77.1,75.6,29.97,NW,319,0.0,1.0,95,0.00,,,0.00,Wunderground v.1.15,2013-09-10 11:29:00,
2013-09-10 07:33:00,77.2,75.7,29.97,NW,318,0.0,1.0,95,0.00,,,0.00,Wunderground v.1.15,2013-09-10 11:33:00,
2013-09-10 07:34:00,77.2,75.7,29.96,NW,318,0.0,1.0,95,0.00,,,0.00,Wunderground v.1.15,2013-09-10 11:34:00,
2013-09-10 07:38:00,77.3,75.8,29.97,NW,318,0.0,1.0,95,0.00,,,0.00,Wunderground v.1.15,2013-09-10 11:38:00,
2013-09-10 07:39:00,77.3,75.8,29.97,NW,318,0.0,1.0,95,0.00,,,0.00,Wunderground v.1.15,2013-09-10 11:39:00,
2013-09-10 07:40:00,77.4,75.9,29.97,NW,319,0.0,1.0,95,0.00,,,0.00,Wunderground v.1.15,2013-09-10 11:40:00,
2013-09-10 07:45:00,77.4,75.5,29.97,NW,319,0.0,1.0,94,0.00,,,0.00,Wunderground v.1.15,2013-09-10 11:45:00,
2013-09-10 07:46:00,77.5,75.6,29.97,NW,319,0.0,1.0,94,0.00,,,0.00,Wunderground v.1.15,2013-09-10 11:46:00,
2013-09-10 07:48:00,77.5,75.6,29.97,NW,318,0.0,1.0,94,0.00,,,0.00,Wunderground v.1.15,2013-09-10 11:48:00,
2013-09-10 07:50:00,77.5,75.6,29.97,NW,319,0.0,1.0,94,0.00,,,0.00,Wunderground v.1.15,2013-09-10 11:50:00,
2013-09-10 07:51:00,77.6,75.7,29.97,NW,319,0.0,1.0,94,0.00,,,0.00,Wunderground v.1.15,2013-09-10 11:51:00,
2013-09-10 07:53:00,77.6,75.7,29.97,NW,319,0.0,1.0,94,0.00,,,0.00,Wunderground v.1.15,2013-09-10 11:53:00,
2013-09-10 07:54:00,77.7,75.8,29.97,SE,124,0.0,1.0,94,0.00,,,0.00,Wunderground v.1.15,2013-09-10 11:54:00,
2013-09-10 07:56:00,77.8,75.9,29.98,ESE,104,0.0,2.0,94,0.00,,,0.00,Wunderground v.1.15,2013-09-10 11:56:00,
2013-09-10 08:02:00,78.5,75.7,29.98,SE,125,1.0,1.0,91,0.00,,,0.00,Wunderground v.1.15,2013-09-10 12:02:00,
2013-09-10 08:03:00,78.6,75.8,29.98,SE,125,1.0,1.0,91,0.00,,,0.00,Wunderground v.1.15,2013-09-10 12:03:00,
2013-09-10 08:04:00,78.7,75.5,29.98,ESE,117,1.0,1.0,90,0.00,,,0.00,Wunderground v.1.15,2013-09-10 12:04:00,
2013-09-10 08:05:00,78.8,75.3,29.98,ESE,121,1.0,1.0,89,0.00,,,0.00,Wunderground v.1.15,2013-09-10 12:05:00,
2013-09-10 08:08:00,79.0,74.8,29.98,ESE,120,0.0,2.0,87,0.00,,,0.00,Wunderground v.1.15,2013-09-10 12:08:00,
2013-09-10 08:11:00,79.1,74.9,29.98,East,86,0.0,1.0,87,0.00,,,0.00,Wunderground v.1.15,2013-09-10 12:11:00,
2013-09-10 08:13:00,79.2,74.6,29.99,East,84,0.0,1.0,86,0.00,,,0.00,Wunderground v.1.15,2013-09-10 12:13:00,
2013-09-10 08:14:00,79.2,74.6,29.99,East,84,0.0,1.0,86,0.00,,,0.00,Wunderground v.1.15,2013-09-10 12:14:00,
2013-09-10 08:15:00,79.3,74.4,29.99,East,84,0.0,1.0,85,0.00,,,0.00,Wunderground v.1.15,2013-09-10 12:15:00,
2013-09-10 08:20:00,79.5,74.6,29.99,East,99,0.0,0.0,85,0.00,,,0.00,Wunderground v.1.15,2013-09-10 12:20:00,
2013-09-10 08:21:00,79.5,74.6,29.99,East,99,0.0,0.0,85,0.00,,,0.00,Wunderground v.1.15,2013-09-10 12:21:00,
2013-09-10 08:24:00,79.6,74.7,29.99,East,91,0.0,0.0,85,0.00,,,0.00,Wunderground v.1.15,2013-09-10 12:24:00,
2013-09-10 08:28:00,79.6,74.7,29.99,East,91,0.0,0.0,85,0.00,,,0.00,Wunderground v.1.15,2013-09-10 12:28:00,
2013-09-10 08:29:00,79.6,74.7,29.99,East,91,0.0,0.0,85,0.00,,,0.00,Wunderground v.1.15,2013-09-10 12:29:00,
2013-09-10 08:31:00,79.6,74.7,29.99,East,91,0.0,1.0,85,0.00,,,0.00,Wunderground v.1.15,2013-09-10 12:31:00,
2013-09-10 08:34:00,79.6,74.7,29.99,East,91,0.0,1.0,85,0.00,,,0.00,Wunderground v.1.15,2013-09-10 12:34:00,
2013-09-10 08:36:00,79.6,74.7,29.99,East,91,0.0,1.0,85,0.00,,,0.00,Wunderground v.1.15,2013-09-10 12:36:00,
2013-09-10 08:38:00,79.6,75.0,30.00,East,91,0.0,1.0,86,0.00,,,0.00,Wunderground v.1.15,2013-09-10 12:38:00,
2013-09-10 08:42:00,79.6,75.0,30.00,East,91,0.0,1.0,86,0.00,,,0.00,Wunderground v.1.15,2013-09-10 12:42:00,
2013-09-10 08:43:00,79.6,75.0,30.00,East,91,0.0,1.0,86,0.00,,,0.00,Wunderground v.1.15,2013-09-10 12:43:00,
2013-09-10 08:44:00,79.6,75.0,30.00,East,89,0.0,1.0,86,0.00,,,0.00,Wunderground v.1.15,2013-09-10 12:44:00,
2013-09-10 08:46:00,79.7,75.1,30.00,East,89,0.0,4.0,86,0.00,,,0.00,Wunderground v.1.15,2013-09-10 12:46:00,
2013-09-10 08:49:00,79.2,73.9,30.00,ESE,121,2.0,6.0,84,1.29,,,0.06,Wunderground v.1.15,2013-09-10 12:49:00,
2013-09-10 08:50:00,78.9,73.7,30.00,ENE,65,2.0,3.0,84,1.79,,,0.09,Wunderground v.1.15,2013-09-10 12:50:00,
2013-09-10 08:54:00,78.1,73.9,30.00,NE,45,3.0,4.0,87,0.60,,,0.16,Wunderground v.1.15,2013-09-10 12:54:00,
2013-09-10 08:55:00,78.0,73.8,30.00,NE,41,3.0,4.0,87,0.43,,,0.16,Wunderground v.1.15,2013-09-10 12:55:00,
2013-09-10 08:56:00,78.0,74.2,30.00,East,90,3.0,4.0,88,0.37,,,0.17,Wunderground v.1.15,2013-09-10 12:56:00,
2013-09-10 08:59:00,78.1,74.6,30.00,ENE,76,2.0,4.0,89,0.23,,,0.18,Wunderground v.1.15,2013-09-10 12:59:00,
2013-09-10 09:00:00,78.3,75.1,30.00,ENE,70,2.0,2.0,90,0.23,,,0.18,Wunderground v.1.15,2013-09-10 13:00:00,
2013-09-10 09:01:00,78.5,75.7,30.00,ENE,71,1.0,2.0,91,0.18,,,0.18,Wunderground v.1.15,2013-09-10 13:01:00,
2013-09-10 09:02:00,78.6,75.8,30.00,ENE,71,1.0,2.0,91,0.15,,,0.18,Wunderground v.1.15,2013-09-10 13:02:00,
2013-09-10 09:06:00,79.6,77.1,30.00,East,86,0.0,2.0,92,0.07,,,0.18,Wunderground v.1.15,2013-09-10 13:06:00,
2013-09-10 09:07:00,79.9,77.4,30.00,ENE,77,0.0,2.0,92,0.07,,,0.18,Wunderground v.1.15,2013-09-10 13:07:00,
2013-09-10 09:08:00,80.1,77.2,30.00,ENE,60,0.0,2.0,91,0.06,,,0.18,Wunderground v.1.15,2013-09-10 13:08:00,
2013-09-10 09:14:00,81.2,77.6,30.00,ESE,115,1.0,1.0,89,0.04,,,0.18,Wunderground v.1.15,2013-09-10 13:14:00,
2013-09-10 09:15:00,81.5,77.9,30.00,ENE,70,1.0,1.0,89,0.04,,,0.18,Wunderground v.1.15,2013-09-10 13:15:00,
2013-09-10 09:16:00,81.7,78.1,30.00,ENE,60,1.0,1.0,89,0.00,,,0.18,Wunderground v.1.15,2013-09-10 13:16:00,
2013-09-10 09:18:00,81.9,78.0,30.00,NE,39,1.0,2.0,88,0.00,,,0.18,Wunderground v.1.15,2013-09-10 13:18:00,
2013-09-10 09:20:00,82.0,78.1,30.00,ENE,70,1.0,3.0,88,0.00,,,0.18,Wunderground v.1.15,2013-09-10 13:20:00,
2013-09-10 09:22:00,82.1,78.2,30.00,ENE,77,1.0,3.0,88,0.00,,,0.18,Wunderground v.1.15,2013-09-10 13:22:00,
2013-09-10 09:24:00,82.2,77.9,30.00,ENE,67,1.0,3.0,87,0.00,,,0.18,Wunderground v.1.15,2013-09-10 13:24:00,
2013-09-10 09:26:00,82.1,77.8,30.00,East,81,1.0,3.0,87,0.00,,,0.18,Wunderground v.1.15,2013-09-10 13:26:00,
2013-09-10 09:28:00,82.3,78.0,30.00,NE,55,1.0,5.0,87,0.00,,,0.18,Wunderground v.1.15,2013-09-10 13:28:00,
2013-09-10 09:29:00,82.2,77.9,30.00,ENE,58,2.0,5.0,87,0.00,,,0.18,Wunderground v.1.15,2013-09-10 13:29:00,
2013-09-10 09:32:00,82.4,78.1,30.00,ESE,115,2.0,3.0,87,0.00,,,0.18,Wunderground v.1.15,2013-09-10 13:32:00,
2013-09-10 09:33:00,82.4,77.4,30.00,East,83,2.0,4.0,85,0.00,,,0.18,Wunderground v.1.15,2013-09-10 13:33:00,
2013-09-10 09:34:00,82.4,77.1,30.00,East,88,2.0,4.0,84,0.00,,,0.18,Wunderground v.1.15,2013-09-10 13:34:00,
2013-09-10 09:36:00,82.4,77.1,30.00,ENE,65,3.0,6.0,84,0.00,,,0.18,Wunderground v.1.15,2013-09-10 13:36:00,
2013-09-10 09:37:00,82.4,77.1,30.00,East,96,3.0,6.0,84,0.00,,,0.18,Wunderground v.1.15,2013-09-10 13:37:00,
2013-09-10 09:38:00,82.4,77.1,30.00,ESE,108,3.0,6.0,84,0.00,,,0.18,Wunderground v.1.15,2013-09-10 13:38:00,
2013-09-10 09:39:00,82.4,76.7,30.00,East,87,3.0,6.0,83,0.00,,,0.18,Wunderground v.1.15,2013-09-10 13:39:00,
2013-09-10 09:44:00,83.0,77.3,30.00,East,87,3.0,4.0,83,0.00,,,0.18,Wunderground v.1.15,2013-09-10 13:44:00,
2013-09-10 09:45:00,83.3,78.0,30.00,SE,134,3.0,4.0,84,0.00,,,0.18,Wunderground v.1.15,2013-09-10 13:45:00,
2013-09-10 09:46:00,83.4,77.0,30.00,East,79,3.0,7.0,81,0.00,,,0.18,Wunderground v.1.15,2013-09-10 13:46:00,
2013-09-10 09:50:00,84.1,77.3,30.00,East,98,3.0,4.0,80,0.00,,,0.18,Wunderground v.1.15,2013-09-10 13:50:00,
2013-09-10 09:51:00,84.1,76.1,30.00,NE,53,3.0,6.0,77,0.00,,,0.18,Wunderground v.1.15,2013-09-10 13:51:00,
2013-09-10 09:56:00,84.6,77.0,30.00,East,96,3.0,6.0,78,0.00,,,0.18,Wunderground v.1.15,2013-09-10 13:56:00,
2013-09-10 09:57:00,84.7,77.1,30.00,NE,51,3.0,6.0,78,0.00,,,0.18,Wunderground v.1.15,2013-09-10 13:57:00,
2013-09-10 09:58:00,84.8,76.8,30.00,ENE,64,3.0,6.0,77,0.00,,,0.18,Wunderground v.1.15,2013-09-10 13:58:00,
2013-09-10 10:04:00,85.4,77.0,30.00,NE,53,2.0,3.0,76,0.00,,,0.18,Wunderground v.1.15,2013-09-10 14:04:00,
2013-09-10 10:05:00,85.5,76.7,30.00,NE,44,3.0,7.0,75,0.00,,,0.18,Wunderground v.1.15,2013-09-10 14:05:00,
2013-09-10 10:09:00,85.6,75.9,30.00,East,86,3.0,7.0,73,0.00,,,0.18,Wunderground v.1.15,2013-09-10 14:09:00,
2013-09-10 10:10:00,85.5,76.3,30.00,ENE,58,3.0,3.0,74,0.00,,,0.18,Wunderground v.1.15,2013-09-10 14:10:00,
2013-09-10 10:11:00,85.4,76.6,30.00,ESE,111,3.0,3.0,75,0.00,,,0.18,Wunderground v.1.15,2013-09-10 14:11:00,
2013-09-10 10:12:00,85.4,76.6,30.00,ESE,102,3.0,3.0,75,0.00,,,0.18,Wunderground v.1.15,2013-09-10 14:12:00,
2013-09-10 10:15:00,85.2,76.0,30.00,NE,47,3.0,4.0,74,0.00,,,0.18,Wunderground v.1.15,2013-09-10 14:15:00,
2013-09-10 10:17:00,85.2,76.0,30.01,East,79,3.0,4.0,74,0.00,,,0.18,Wunderground v.1.15,2013-09-10 14:17:00,
2013-09-10 10:18:00,85.1,75.9,30.01,East,82,3.0,4.0,74,0.00,,,0.18,Wunderground v.1.15,2013-09-10 14:18:00,
2013-09-10 10:22:00,84.9,76.1,30.01,ENE,68,3.0,4.0,75,0.00,,,0.18,Wunderground v.1.15,2013-09-10 14:22:00,
2013-09-10 10:23:00,84.8,76.0,30.01,East,90,3.0,6.0,75,0.00,,,0.18,Wunderground v.1.15,2013-09-10 14:23:00,
2013-09-10 10:25:00,84.7,75.9,30.01,NNW,345,3.0,6.0,75,0.00,,,0.18,Wunderground v.1.15,2013-09-10 14:25:00,
2013-09-10 10:29:00,84.6,76.2,30.01,ESE,103,4.0,6.0,76,0.00,,,0.18,Wunderground v.1.15,2013-09-10 14:29:00,
2013-09-10 10:30:00,84.6,76.6,30.01,East,87,4.0,4.0,77,0.00,,,0.18,Wunderground v.1.15,2013-09-10 14:30:00,
2013-09-10 10:31:00,84.6,76.6,30.01,ENE,72,3.0,9.0,77,0.00,,,0.18,Wunderground v.1.15,2013-09-10 14:31:00,
2013-09-10 10:34:00,84.6,77.0,30.01,SE,125,3.0,9.0,78,0.00,,,0.18,Wunderground v.1.15,2013-09-10 14:34:00,
2013-09-10 10:36:00,84.6,76.6,30.01,SE,146,3.0,9.0,77,0.00,,,0.18,Wunderground v.1.15,2013-09-10 14:36:00,
2013-09-10 10:39:00,84.7,76.7,30.01,ESE,105,3.0,9.0,77,0.00,,,0.18,Wunderground v.1.15,2013-09-10 14:39:00,
2013-09-10 10:41:00,84.9,77.3,30.01,East,81,2.0,5.0,78,0.00,,,0.18,Wunderground v.1.15,2013-09-10 14:41:00,
2013-09-10 10:42:00,85.0,76.6,30.01,ESE,117,3.0,6.0,76,0.00,,,0.18,Wunderground v.1.15,2013-09-10 14:42:00,
2013-09-10 10:46:00,85.0,76.6,30.01,ENE,67,3.0,9.0,76,0.00,,,0.18,Wunderground v.1.15,2013-09-10 14:46:00,
2013-09-10 10:49:00,85.2,76.4,30.01,ENE,77,3.0,9.0,75,0.00,,,0.18,Wunderground v.1.15,2013-09-10 14:49:00,
2013-09-10 10:50:00,85.2,76.8,30.01,ENE,77,3.0,3.0,76,0.00,,,0.18,Wunderground v.1.15,2013-09-10 14:50:00,
2013-09-10 10:52:00,85.5,77.1,30.01,ENE,73,2.0,5.0,76,0.00,,,0.18,Wunderground v.1.15,2013-09-10 14:52:00,
2013-09-10 10:53:00,85.7,76.0,30.01,ENE,63,2.0,9.0,73,0.00,,,0.18,Wunderground v.1.15,2013-09-10 14:53:00,
2013-09-10 10:57:00,86.5,76.8,30.01,ENE,78,2.0,9.0,73,0.00,,,0.18,Wunderground v.1.15,2013-09-10 14:57:00,
2013-09-10 10:59:00,86.7,76.2,30.01,ENE,78,3.0,9.0,71,0.00,,,0.18,Wunderground v.1.15,2013-09-10 14:59:00,
2013-09-10 11:00:00,86.7,76.2,30.02,ENE,62,3.0,8.0,71,0.00,,,0.18,Wunderground v.1.15,2013-09-10 15:00:00,
2013-09-10 11:05:00,86.1,76.4,30.02,SE,131,4.0,8.0,73,0.00,,,0.18,Wunderground v.1.15,2013-09-10 15:05:00,
2013-09-10 11:06:00,86.0,76.3,30.02,SSE,155,4.0,8.0,73,0.00,,,0.18,Wunderground v.1.15,2013-09-10 15:06:00,
2013-09-10 11:11:00,85.2,77.2,30.02,ENE,70,4.0,4.0,77,0.00,,,0.19,Wunderground v.1.15,2013-09-10 15:11:00,
2013-09-10 11:12:00,84.9,76.5,30.02,East,89,4.0,4.0,76,0.00,,,0.19,Wunderground v.1.15,2013-09-10 15:12:00,
2013-09-10 11:13:00,84.8,76.8,30.02,ENE,77,4.0,4.0,77,0.00,,,0.19,Wunderground v.1.15,2013-09-10 15:13:00,
2013-09-10 11:18:00,85.1,78.6,30.02,NE,56,4.0,9.0,81,0.00,,,0.19,Wunderground v.1.15,2013-09-10 15:18:00,
2013-09-10 11:19:00,85.2,77.9,30.02,East,80,4.0,9.0,79,0.00,,,0.19,Wunderground v.1.15,2013-09-10 15:19:00,
2013-09-10 11:20:00,85.3,78.4,30.02,East,92,4.0,4.0,80,0.00,,,0.19,Wunderground v.1.15,2013-09-10 15:20:00,
2013-09-10 11:23:00,84.6,76.2,30.02,ENE,72,5.0,7.0,76,0.05,,,0.20,Wunderground v.1.15,2013-09-10 15:23:00,
2013-09-10 11:26:00,83.9,75.9,30.02,East,84,5.0,7.0,77,0.05,,,0.20,Wunderground v.1.15,2013-09-10 15:26:00,
2013-09-10 11:29:00,83.4,75.0,30.01,ESE,103,5.0,7.0,76,0.05,,,0.20,Wunderground v.1.15,2013-09-10 15:29:00,
2013-09-10 11:30:00,83.3,75.3,30.01,ESE,105,5.0,8.0,77,0.05,,,0.20,Wunderground v.1.15,2013-09-10 15:30:00,
2013-09-10 11:31:00,83.3,75.3,30.01,East,96,5.0,8.0,77,0.05,,,0.20,Wunderground v.1.15,2013-09-10 15:31:00,
2013-09-10 11:33:00,83.2,76.0,30.01,NE,56,4.0,8.0,79,0.05,,,0.20,Wunderground v.1.15,2013-09-10 15:33:00,
2013-09-10 11:34:00,83.1,76.3,30.01,ESE,106,4.0,8.0,80,0.05,,,0.20,Wunderground v.1.15,2013-09-10 15:34:00,
2013-09-10 11:37:00,83.0,76.9,30.01,ENE,72,4.0,8.0,82,0.04,,,0.20,Wunderground v.1.15,2013-09-10 15:37:00,
2013-09-10 11:40:00,82.9,77.6,30.01,SSE,155,4.0,4.0,84,0.00,,,0.20,Wunderground v.1.15,2013-09-10 15:40:00,
2013-09-10 11:41:00,83.0,77.7,30.01,SSE,151,4.0,5.0,84,0.00,,,0.20,Wunderground v.1.15,2013-09-10 15:41:00,
2013-09-10 11:43:00,83.1,78.1,30.01,ENE,72,4.0,8.0,85,0.00,,,0.20,Wunderground v.1.15,2013-09-10 15:43:00,
2013-09-10 11:46:00,83.4,79.1,30.01,East,79,3.0,8.0,87,0.00,,,0.20,Wunderground v.1.15,2013-09-10 15:46:00,
2013-09-10 11:47:00,83.6,79.0,30.01,ESE,115,3.0,8.0,86,0.00,,,0.20,Wunderground v.1.15,2013-09-10 15:47:00,
2013-09-10 11:50:00,83.8,78.4,30.01,ESE,105,3.0,8.0,84,0.00,,,0.20,Wunderground v.1.15,2013-09-10 15:50:00,
2013-09-10 11:51:00,83.9,78.5,30.01,South,172,3.0,8.0,84,0.00,,,0.20,Wunderground v.1.15,2013-09-10 15:51:00,
2013-09-10 11:52:00,84.0,77.5,30.01,East,83,3.0,8.0,81,0.00,,,0.20,Wunderground v.1.15,2013-09-10 15:52:00,
2013-09-10 11:56:00,84.6,77.7,30.01,ESE,121,3.0,8.0,80,0.00,,,0.20,Wunderground v.1.15,2013-09-10 15:56:00,
2013-09-10 11:57:00,84.7,78.2,30.01,ESE,113,3.0,8.0,81,0.00,,,0.20,Wunderground v.1.15,2013-09-10 15:57:00,
2013-09-10 11:58:00,84.9,78.8,30.01,ENE,58,3.0,8.0,82,0.00,,,0.20,Wunderground v.1.15,2013-09-10 15:58:00,
2013-09-10 11:59:00,85.1,78.6,30.01,East,90,3.0,8.0,81,0.00,,,0.20,Wunderground v.1.15,2013-09-10 15:59:00,
2013-09-10 12:01:00,85.5,78.6,30.01,East,97,3.0,5.0,80,0.00,,,0.20,Wunderground v.1.15,2013-09-10 16:01:00,
2013-09-10 12:02:00,85.6,78.3,30.01,SSE,160,3.0,5.0,79,0.00,,,0.20,Wunderground v.1.15,2013-09-10 16:02:00,
2013-09-10 12:04:00,85.5,77.9,30.01,East,96,3.0,5.0,78,0.00,,,0.20,Wunderground v.1.15,2013-09-10 16:04:00,
2013-09-10 12:08:00,85.9,78.2,30.01,ENE,67,3.0,5.0,78,0.00,,,0.20,Wunderground v.1.15,2013-09-10 16:08:00,
2013-09-10 12:09:00,86.1,78.4,30.01,ENE,75,3.0,7.0,78,0.00,,,0.20,Wunderground v.1.15,2013-09-10 16:09:00,
2013-09-10 12:14:00,86.6,76.5,30.01,East,87,3.0,8.0,72,0.00,,,0.20,Wunderground v.1.15,2013-09-10 16:14:00,
2013-09-10 12:15:00,86.7,76.2,30.01,ENE,67,3.0,8.0,71,0.00,,,0.20,Wunderground v.1.15,2013-09-10 16:15:00,
2013-09-10 12:17:00,86.8,76.3,30.01,East,79,4.0,8.0,71,0.00,,,0.20,Wunderground v.1.15,2013-09-10 16:17:00,
2013-09-10 12:20:00,87.1,76.1,30.01,ESE,108,4.0,4.0,70,0.00,,,0.20,Wunderground v.1.15,2013-09-10 16:20:00,
2013-09-10 12:21:00,87.3,76.7,30.01,NE,48,4.0,4.0,71,0.00,,,0.20,Wunderground v.1.15,2013-09-10 16:21:00,
2013-09-10 12:22:00,87.3,74.5,30.01,ENE,78,4.0,4.0,66,0.00,,,0.20,Wunderground v.1.15,2013-09-10 16:22:00,
2013-09-10 12:23:00,87.3,74.5,30.01,NNE,27,4.0,4.0,66,0.00,,,0.20,Wunderground v.1.15,2013-09-10 16:23:00,
2013-09-10 12:26:00,87.4,74.6,30.01,North,11,3.0,4.0,66,0.00,,,0.20,Wunderground v.1.15,2013-09-10 16:26:00,
2013-09-10 12:28:00,87.5,75.6,30.01,East,82,2.0,4.0,68,0.00,,,0.20,Wunderground v.1.15,2013-09-10 16:28:00,
2013-09-10 12:29:00,87.7,76.3,30.01,ESE,118,2.0,4.0,69,0.00,,,0.20,Wunderground v.1.15,2013-09-10 16:29:00,
2013-09-10 12:33:00,88.0,76.1,30.00,NE,53,3.0,14.0,68,0.00,,,0.20,Wunderground v.1.15,2013-09-10 16:33:00,
2013-09-10 12:35:00,88.2,75.9,30.00,ENE,72,3.0,14.0,67,0.00,,,0.20,Wunderground v.1.15,2013-09-10 16:35:00,
2013-09-10 12:36:00,88.2,75.9,30.00,North,1,3.0,14.0,67,0.00,,,0.20,Wunderground v.1.15,2013-09-10 16:36:00,
2013-09-10 12:37:00,88.3,75.9,30.00,ENE,68,3.0,14.0,67,0.00,,,0.20,Wunderground v.1.15,2013-09-10 16:37:00,
2013-09-10 12:39:00,88.7,76.8,30.00,East,87,3.0,14.0,68,0.00,,,0.20,Wunderground v.1.15,2013-09-10 16:39:00,
2013-09-10 12:41:00,88.9,75.6,30.00,East,91,4.0,14.0,65,0.00,,,0.20,Wunderground v.1.15,2013-09-10 16:41:00,
2013-09-10 12:42:00,88.8,76.0,30.00,ENE,70,4.0,14.0,66,0.00,,,0.20,Wunderground v.1.15,2013-09-10 16:42:00,
2013-09-10 12:44:00,88.8,76.4,30.00,SE,127,4.0,14.0,67,0.00,,,0.20,Wunderground v.1.15,2013-09-10 16:44:00,
2013-09-10 12:45:00,88.9,77.0,30.00,NNE,15,4.0,14.0,68,0.00,,,0.20,Wunderground v.1.15,2013-09-10 16:45:00,
2013-09-10 12:48:00,88.7,75.9,30.00,SE,142,4.0,14.0,66,0.00,,,0.20,Wunderground v.1.15,2013-09-10 16:48:00,
2013-09-10 12:50:00,88.6,75.8,30.00,NNW,327,4.0,4.0,66,0.00,,,0.20,Wunderground v.1.15,2013-09-10 16:50:00,
2013-09-10 12:51:00,88.6,76.2,30.00,NE,41,4.0,7.0,67,0.00,,,0.20,Wunderground v.1.15,2013-09-10 16:51:00,
2013-09-10 12:52:00,88.4,76.0,30.00,East,97,4.0,14.0,67,0.00,,,0.20,Wunderground v.1.15,2013-09-10 16:52:00,
2013-09-10 12:55:00,88.7,76.3,30.00,East,83,4.0,14.0,67,0.00,,,0.20,Wunderground v.1.15,2013-09-10 16:55:00,
2013-09-10 12:56:00,88.8,76.4,30.01,South,189,4.0,14.0,67,0.00,,,0.20,Wunderground v.1.15,2013-09-10 16:56:00,
2013-09-10 12:58:00,89.0,76.2,30.01,ENE,58,4.0,14.0,66,0.00,,,0.20,Wunderground v.1.15,2013-09-10 16:58:00,
2013-09-10 13:01:00,88.6,74.9,30.01,ENE,64,5.0,6.0,64,0.00,,,0.20,Wunderground v.1.15,2013-09-10 17:01:00,
2013-09-10 13:03:00,88.4,75.6,30.01,NE,35,5.0,6.0,66,0.00,,,0.20,Wunderground v.1.15,2013-09-10 17:03:00,
2013-09-10 13:06:00,88.4,75.6,30.00,SE,131,5.0,8.0,66,0.00,,,0.20,Wunderground v.1.15,2013-09-10 17:06:00,
2013-09-10 13:11:00,88.5,75.7,30.00,ENE,73,5.0,5.0,66,0.00,,,0.20,Wunderground v.1.15,2013-09-10 17:11:00,
2013-09-10 13:12:00,88.4,75.6,30.00,ESE,103,5.0,5.0,66,0.00,,,0.20,Wunderground v.1.15,2013-09-10 17:12:00,
2013-09-10 13:13:00,88.4,76.0,30.00,East,80,5.0,5.0,67,0.00,,,0.20,Wunderground v.1.15,2013-09-10 17:13:00,
2013-09-10 13:14:00,88.5,76.6,30.00,ENE,64,4.0,5.0,68,0.00,,,0.20,Wunderground v.1.15,2013-09-10 17:14:00,
2013-09-10 13:19:00,88.9,76.5,30.00,SE,134,4.0,6.0,67,0.00,,,0.20,Wunderground v.1.15,2013-09-10 17:19:00,
2013-09-10 13:20:00,89.0,76.6,30.00,SE,139,3.0,4.0,67,0.00,,,0.20,Wunderground v.1.15,2013-09-10 17:20:00,
2013-09-10 13:21:00,89.1,76.3,30.00,SSE,163,3.0,5.0,66,0.00,,,0.20,Wunderground v.1.15,2013-09-10 17:21:00,
2013-09-10 13:22:00,89.2,76.8,30.00,ENE,67,3.0,8.0,67,0.00,,,0.20,Wunderground v.1.15,2013-09-10 17:22:00,
2013-09-10 13:23:00,89.1,76.7,30.00,ESE,113,4.0,8.0,67,0.00,,,0.20,Wunderground v.1.15,2013-09-10 17:23:00,
2013-09-10 13:25:00,89.2,76.4,30.00,ESE,112,4.0,8.0,66,0.00,,,0.20,Wunderground v.1.15,2013-09-10 17:25:00,
2013-09-10 13:27:00,89.2,76.4,29.99,East,81,5.0,9.0,66,0.00,,,0.20,Wunderground v.1.15,2013-09-10 17:27:00,
2013-09-10 13:28:00,89.2,76.8,29.99,NE,51,5.0,9.0,67,0.00,,,0.20,Wunderground v.1.15,2013-09-10 17:28:00,
2013-09-10 13:32:00,89.2,77.3,29.99,SSE,147,5.0,10.0,68,0.00,,,0.20,Wunderground v.1.15,2013-09-10 17:32:00,
2013-09-10 13:34:00,89.1,77.2,30.00,SE,146,5.0,10.0,68,0.00,,,0.20,Wunderground v.1.15,2013-09-10 17:34:00,
2013-09-10 13:38:00,89.3,77.3,29.99,East,94,5.0,10.0,68,0.00,,,0.20,Wunderground v.1.15,2013-09-10 17:38:00,
2013-09-10 13:40:00,89.3,76.9,29.99,East,87,5.0,10.0,67,0.00,,,0.20,Wunderground v.1.15,2013-09-10 17:40:00,
2013-09-10 13:43:00,89.6,77.2,29.99,ENE,75,5.0,10.0,67,0.00,,,0.20,Wunderground v.1.15,2013-09-10 17:43:00,
2013-09-10 13:44:00,89.7,77.3,29.99,ENE,61,4.0,10.0,67,0.00,,,0.20,Wunderground v.1.15,2013-09-10 17:44:00,
2013-09-10 13:47:00,89.6,77.2,29.99,East,88,5.0,10.0,67,0.00,,,0.20,Wunderground v.1.15,2013-09-10 17:47:00,
2013-09-10 13:48:00,89.7,77.7,29.99,ENE,58,4.0,10.0,68,0.00,,,0.20,Wunderground v.1.15,2013-09-10 17:48:00,
2013-09-10 13:51:00,89.8,76.9,29.99,East,86,4.0,10.0,66,0.00,,,0.20,Wunderground v.1.15,2013-09-10 17:51:00,
2013-09-10 13:52:00,89.7,77.3,29.99,ENE,74,4.0,10.0,67,0.00,,,0.20,Wunderground v.1.15,2013-09-10 17:52:00,
2013-09-10 13:56:00,89.4,76.5,29.99,NNE,19,4.0,10.0,66,0.00,,,0.20,Wunderground v.1.15,2013-09-10 17:56:00,
2013-09-10 13:57:00,89.3,76.4,29.99,SE,132,5.0,10.0,66,0.00,,,0.20,Wunderground v.1.15,2013-09-10 17:57:00,
2013-09-10 13:58:00,89.1,76.3,29.99,East,91,5.0,10.0,66,0.00,,,0.20,Wunderground v.1.15,2013-09-10 17:58:00,
2013-09-10 14:02:00,88.9,75.6,29.99,WNW,301,4.0,5.0,65,0.00,,,0.20,Wunderground v.1.15,2013-09-10 18:02:00,
2013-09-10 14:03:00,89.1,76.3,29.99,ENE,77,4.0,6.0,66,0.00,,,0.20,Wunderground v.1.15,2013-09-10 18:03:00,
2013-09-10 14:04:00,89.2,75.9,29.99,NE,45,4.0,6.0,65,0.00,,,0.20,Wunderground v.1.15,2013-09-10 18:04:00,
2013-09-10 14:08:00,89.3,74.1,29.99,East,101,3.0,6.0,61,0.00,,,0.20,Wunderground v.1.15,2013-09-10 18:08:00,
2013-09-10 14:09:00,89.2,74.5,29.99,SE,136,3.0,6.0,62,0.00,,,0.20,Wunderground v.1.15,2013-09-10 18:09:00,
2013-09-10 14:10:00,89.1,73.9,29.99,East,84,4.0,4.0,61,0.00,,,0.20,Wunderground v.1.15,2013-09-10 18:10:00,
2013-09-10 14:13:00,89.0,74.3,29.99,NE,50,4.0,9.0,62,0.00,,,0.20,Wunderground v.1.15,2013-09-10 18:13:00,
2013-09-10 14:15:00,89.3,74.1,29.99,East,83,4.0,9.0,61,0.00,,,0.20,Wunderground v.1.15,2013-09-10 18:15:00,
2013-09-10 14:20:00,89.8,74.6,29.99,NW,321,4.0,4.0,61,0.00,,,0.20,Wunderground v.1.15,2013-09-10 18:20:00,
2013-09-10 14:21:00,89.8,75.0,29.99,NNW,335,4.0,4.0,62,0.00,,,0.20,Wunderground v.1.15,2013-09-10 18:21:00,
2013-09-10 14:22:00,89.7,75.9,29.99,ESE,113,4.0,6.0,64,0.00,,,0.20,Wunderground v.1.15,2013-09-10 18:22:00,
2013-09-10 14:25:00,89.7,74.5,29.99,ENE,65,4.0,6.0,61,0.00,,,0.20,Wunderground v.1.15,2013-09-10 18:25:00,
2013-09-10 14:26:00,89.7,74.9,29.99,North,349,3.0,6.0,62,0.00,,,0.20,Wunderground v.1.15,2013-09-10 18:26:00,
2013-09-10 14:27:00,89.7,74.5,29.99,NNW,331,3.0,6.0,61,0.00,,,0.20,Wunderground v.1.15,2013-09-10 18:27:00,
2013-09-10 14:29:00,89.7,74.5,29.99,ESE,107,3.0,6.0,61,0.00,,,0.20,Wunderground v.1.15,2013-09-10 18:29:00,
2013-09-10 14:31:00,90.0,74.7,29.99,ENE,64,3.0,11.0,61,0.00,,,0.20,Wunderground v.1.15,2013-09-10 18:31:00,
2013-09-10 14:34:00,90.5,76.2,29.99,ENE,64,4.0,11.0,63,0.00,,,0.20,Wunderground v.1.15,2013-09-10 18:34:00,
2013-09-10 14:35:00,90.2,75.4,29.99,ENE,68,4.0,11.0,62,0.00,,,0.20,Wunderground v.1.15,2013-09-10 18:35:00,
2013-09-10 14:36:00,90.0,75.2,29.99,ENE,58,4.0,11.0,62,0.00,,,0.20,Wunderground v.1.15,2013-09-10 18:36:00,
2013-09-10 14:40:00,89.7,74.9,29.98,ENE,60,5.0,11.0,62,0.00,,,0.20,Wunderground v.1.15,2013-09-10 18:40:00,
2013-09-10 14:42:00,89.9,75.6,29.98,ENE,60,6.0,11.0,63,0.00,,,0.20,Wunderground v.1.15,2013-09-10 18:42:00,
2013-09-10 14:43:00,89.9,75.6,29.98,East,79,6.0,11.0,63,0.00,,,0.20,Wunderground v.1.15,2013-09-10 18:43:00,
2013-09-10 14:44:00,89.9,75.1,29.98,NW,312,6.0,11.0,62,0.00,,,0.20,Wunderground v.1.15,2013-09-10 18:44:00,
2013-09-10 14:48:00,90.2,76.4,29.98,East,100,5.0,11.0,64,0.00,,,0.20,Wunderground v.1.15,2013-09-10 18:48:00,
2013-09-10 14:50:00,90.2,75.9,29.98,East,79,5.0,11.0,63,0.00,,,0.20,Wunderground v.1.15,2013-09-10 18:50:00,
2013-09-10 14:51:00,90.1,75.3,29.98,East,101,5.0,11.0,62,0.00,,,0.20,Wunderground v.1.15,2013-09-10 18:51:00,
2013-09-10 14:55:00,90.1,75.8,29.97,ENE,68,6.0,11.0,63,0.00,,,0.20,Wunderground v.1.15,2013-09-10 18:55:00,
2013-09-10 14:56:00,90.2,75.4,29.97,East,88,6.0,11.0,62,0.00,,,0.20,Wunderground v.1.15,2013-09-10 18:56:00,
2013-09-10 14:57:00,90.2,75.4,29.97,East,85,6.0,11.0,62,0.00,,,0.20,Wunderground v.1.15,2013-09-10 18:57:00,
2013-09-10 14:58:00,90.2,75.9,29.97,ENE,64,6.0,11.0,63,0.00,,,0.20,Wunderground v.1.15,2013-09-10 18:58:00,
2013-09-10 14:59:00,90.2,75.9,29.97,ENE,65,6.0,11.0,63,0.00,,,0.20,Wunderground v.1.15,2013-09-10 18:59:00,
2013-09-10 15:01:00,90.2,75.4,29.97,ENE,68,6.0,8.0,62,0.00,,,0.20,Wunderground v.1.15,2013-09-10 19:01:00,
2013-09-10 15:02:00,90.1,74.8,29.97,East,101,5.0,8.0,61,0.00,,,0.20,Wunderground v.1.15,2013-09-10 19:02:00,
2013-09-10 15:05:00,90.1,75.8,29.97,NNE,32,5.0,8.0,63,0.00,,,0.20,Wunderground v.1.15,2013-09-10 19:05:00,
2013-09-10 15:09:00,90.1,75.3,29.97,SSW,208,5.0,8.0,62,0.00,,,0.20,Wunderground v.1.15,2013-09-10 19:09:00,
2013-09-10 15:10:00,90.2,75.9,29.97,NNE,23,4.0,4.0,63,0.00,,,0.20,Wunderground v.1.15,2013-09-10 19:10:00,
2013-09-10 15:11:00,90.2,75.4,29.97,ENE,62,4.0,4.0,62,0.00,,,0.20,Wunderground v.1.15,2013-09-10 19:11:00,
2013-09-10 15:12:00,90.1,75.3,29.97,East,100,4.0,4.0,62,0.00,,,0.20,Wunderground v.1.15,2013-09-10 19:12:00,
2013-09-10 15:15:00,89.9,75.1,29.96,ENE,64,4.0,9.0,62,0.00,,,0.20,Wunderground v.1.15,2013-09-10 19:15:00,
2013-09-10 15:17:00,89.9,73.7,29.96,ENE,75,4.0,9.0,59,0.00,,,0.20,Wunderground v.1.15,2013-09-10 19:17:00,
2013-09-10 15:20:00,90.0,74.7,29.96,ESE,103,5.0,8.0,61,0.00,,,0.20,Wunderground v.1.15,2013-09-10 19:20:00,
2013-09-10 15:21:00,90.1,75.3,29.96,ENE,68,5.0,8.0,62,0.00,,,0.20,Wunderground v.1.15,2013-09-10 19:21:00,
2013-09-10 15:22:00,90.3,76.0,29.96,ENE,67,5.0,8.0,63,0.00,,,0.20,Wunderground v.1.15,2013-09-10 19:22:00,
2013-09-10 15:25:00,90.6,75.3,29.96,NE,53,5.0,8.0,61,0.00,,,0.20,Wunderground v.1.15,2013-09-10 19:25:00,
2013-09-10 15:26:00,90.6,76.7,29.96,SE,133,5.0,8.0,64,0.00,,,0.20,Wunderground v.1.15,2013-09-10 19:26:00,
2013-09-10 15:28:00,90.6,76.7,29.97,ENE,74,5.0,8.0,64,0.00,,,0.20,Wunderground v.1.15,2013-09-10 19:28:00,
2013-09-10 15:32:00,89.4,76.1,29.97,East,79,5.0,14.0,65,0.00,,,0.20,Wunderground v.1.15,2013-09-10 19:32:00,
2013-09-10 15:38:00,87.6,75.7,29.97,ENE,67,6.0,14.0,68,0.00,,,0.20,Wunderground v.1.15,2013-09-10 19:38:00,
2013-09-10 15:39:00,87.4,75.5,29.97,ESE,105,6.0,14.0,68,0.00,,,0.20,Wunderground v.1.15,2013-09-10 19:39:00,
2013-09-10 15:41:00,87.2,75.8,29.97,ENE,72,6.0,14.0,69,0.00,,,0.20,Wunderground v.1.15,2013-09-10 19:41:00,
2013-09-10 15:45:00,87.0,75.6,29.97,SE,131,5.0,14.0,69,0.00,,,0.20,Wunderground v.1.15,2013-09-10 19:45:00,
2013-09-10 15:46:00,87.0,75.6,29.97,East,88,5.0,14.0,69,0.00,,,0.20,Wunderground v.1.15,2013-09-10 19:46:00,
2013-09-10 15:47:00,86.9,75.5,29.97,East,95,4.0,14.0,69,0.00,,,0.20,Wunderground v.1.15,2013-09-10 19:47:00,
2013-09-10 15:48:00,86.9,75.1,29.97,ESE,105,4.0,14.0,68,0.00,,,0.20,Wunderground v.1.15,2013-09-10 19:48:00,
2013-09-10 15:51:00,86.3,74.9,29.98,SE,131,5.0,14.0,69,0.00,,,0.20,Wunderground v.1.15,2013-09-10 19:51:00,
2013-09-10 15:55:00,84.8,75.2,29.98,SE,138,6.0,14.0,73,0.00,,,0.20,Wunderground v.1.15,2013-09-10 19:55:00,
2013-09-10 15:56:00,84.3,74.7,29.98,ESE,113,6.0,14.0,73,0.00,,,0.20,Wunderground v.1.15,2013-09-10 19:56:00,
2013-09-10 16:00:00,82.8,74.5,29.97,East,90,6.0,6.0,76,0.00,,,0.20,Wunderground v.1.15,2013-09-10 20:00:00,
2013-09-10 16:01:00,82.5,74.2,29.97,East,81,6.0,8.0,76,0.00,,,0.20,Wunderground v.1.15,2013-09-10 20:01:00,
2013-09-10 16:06:00,81.9,73.6,29.97,East,97,6.0,9.0,76,0.00,,,0.20,Wunderground v.1.15,2013-09-10 20:06:00,
2013-09-10 16:09:00,82.1,73.8,29.97,SE,141,6.0,9.0,76,0.00,,,0.20,Wunderground v.1.15,2013-09-10 20:09:00,
2013-09-10 16:10:00,82.2,73.9,29.97,NE,44,5.0,5.0,76,0.00,,,0.20,Wunderground v.1.15,2013-09-10 20:10:00,
2013-09-10 16:12:00,82.6,74.3,29.97,ENE,64,5.0,5.0,76,0.00,,,0.20,Wunderground v.1.15,2013-09-10 20:12:00,
2013-09-10 16:15:00,83.3,74.1,29.97,SE,124,4.0,5.0,74,0.00,,,0.20,Wunderground v.1.15,2013-09-10 20:15:00,
2013-09-10 16:17:00,83.7,74.5,29.97,SSE,153,4.0,5.0,74,0.00,,,0.20,Wunderground v.1.15,2013-09-10 20:17:00,
2013-09-10 16:21:00,83.6,74.0,29.97,ESE,117,4.0,4.0,73,0.00,,,0.20,Wunderground v.1.15,2013-09-10 20:21:00,
2013-09-10 16:22:00,83.6,74.0,29.97,SSE,162,4.0,4.0,73,0.00,,,0.20,Wunderground v.1.15,2013-09-10 20:22:00,
2013-09-10 16:25:00,83.8,74.2,29.97,ESE,120,3.0,4.0,73,0.00,,,0.20,Wunderground v.1.15,2013-09-10 20:25:00,
2013-09-10 16:26:00,83.9,74.3,29.97,ENE,70,3.0,4.0,73,0.00,,,0.20,Wunderground v.1.15,2013-09-10 20:26:00,
2013-09-10 16:28:00,84.1,74.5,29.97,SE,141,3.0,4.0,73,0.00,,,0.20,Wunderground v.1.15,2013-09-10 20:28:00,
2013-09-10 16:31:00,84.3,74.7,29.97,ESE,112,3.0,13.0,73,0.00,,,0.20,Wunderground v.1.15,2013-09-10 20:31:00,
2013-09-10 16:34:00,84.7,74.7,29.97,ESE,113,3.0,13.0,72,0.00,,,0.20,Wunderground v.1.15,2013-09-10 20:34:00,
2013-09-10 16:35:00,84.7,74.7,29.97,SE,141,3.0,13.0,72,0.00,,,0.20,Wunderground v.1.15,2013-09-10 20:35:00,
2013-09-10 16:40:00,85.1,75.1,29.97,ESE,106,4.0,4.0,72,0.00,,,0.20,Wunderground v.1.15,2013-09-10 20:40:00,
2013-09-10 16:42:00,85.3,75.7,29.97,SSE,156,5.0,8.0,73,0.00,,,0.20,Wunderground v.1.15,2013-09-10 20:42:00,
2013-09-10 16:43:00,85.2,75.6,29.97,SE,130,5.0,13.0,73,0.00,,,0.20,Wunderground v.1.15,2013-09-10 20:43:00,
2013-09-10 16:46:00,84.7,75.5,29.97,ESE,120,5.0,13.0,74,0.00,,,0.20,Wunderground v.1.15,2013-09-10 20:46:00,
2013-09-10 16:47:00,84.6,75.4,29.97,SE,124,5.0,13.0,74,0.00,,,0.20,Wunderground v.1.15,2013-09-10 20:47:00,
2013-09-10 16:50:00,84.6,75.8,29.97,East,89,5.0,13.0,75,0.00,,,0.20,Wunderground v.1.15,2013-09-10 20:50:00,
2013-09-10 16:53:00,84.5,76.1,29.97,SSE,153,4.0,13.0,76,0.00,,,0.20,Wunderground v.1.15,2013-09-10 20:53:00,
2013-09-10 16:54:00,84.5,76.1,29.96,ESE,117,4.0,13.0,76,0.00,,,0.20,Wunderground v.1.15,2013-09-10 20:54:00,
2013-09-10 16:58:00,84.1,75.7,29.97,SE,130,4.0,13.0,76,0.00,,,0.20,Wunderground v.1.15,2013-09-10 20:58:00,
2013-09-10 16:59:00,84.0,76.0,29.97,ESE,119,4.0,13.0,77,0.00,,,0.20,Wunderground v.1.15,2013-09-10 20:59:00,
2013-09-10 17:00:00,84.0,76.0,29.97,SE,130,4.0,6.0,77,0.00,,,0.20,Wunderground v.1.15,2013-09-10 21:00:00,
2013-09-10 17:04:00,83.8,76.2,29.97,ESE,117,5.0,6.0,78,0.00,,,0.20,Wunderground v.1.15,2013-09-10 21:04:00,
2013-09-10 17:05:00,83.7,76.1,29.97,SSE,167,5.0,6.0,78,0.00,,,0.20,Wunderground v.1.15,2013-09-10 21:05:00,
2013-09-10 17:06:00,83.6,76.0,29.97,ENE,66,5.0,6.0,78,0.00,,,0.20,Wunderground v.1.15,2013-09-10 21:06:00,
2013-09-10 17:07:00,83.6,76.0,29.97,ESE,120,5.0,6.0,78,0.00,,,0.20,Wunderground v.1.15,2013-09-10 21:07:00,
2013-09-10 17:08:00,83.6,76.0,29.97,ESE,114,5.0,8.0,78,0.00,,,0.20,Wunderground v.1.15,2013-09-10 21:08:00,
2013-09-10 17:12:00,83.1,75.5,29.97,East,87,4.0,6.0,78,0.00,,,0.20,Wunderground v.1.15,2013-09-10 21:12:00,
2013-09-10 17:13:00,83.1,75.5,29.97,ENE,77,5.0,6.0,78,0.00,,,0.20,Wunderground v.1.15,2013-09-10 21:13:00,
2013-09-10 17:14:00,83.0,75.4,29.97,ENE,72,4.0,6.0,78,0.00,,,0.20,Wunderground v.1.15,2013-09-10 21:14:00,
2013-09-10 17:15:00,82.9,75.3,29.97,SE,134,5.0,6.0,78,0.00,,,0.20,Wunderground v.1.15,2013-09-10 21:15:00,
2013-09-10 17:18:00,82.7,75.9,29.98,SE,134,4.0,6.0,80,0.00,,,0.20,Wunderground v.1.15,2013-09-10 21:18:00,
2013-09-10 17:19:00,82.7,76.3,29.98,ENE,75,4.0,6.0,81,0.00,,,0.20,Wunderground v.1.15,2013-09-10 21:19:00,
2013-09-10 17:20:00,82.6,76.5,29.97,ESE,119,4.0,4.0,82,0.00,,,0.20,Wunderground v.1.15,2013-09-10 21:20:00,
2013-09-10 17:22:00,82.2,76.5,29.97,East,87,4.0,5.0,83,0.00,,,0.20,Wunderground v.1.15,2013-09-10 21:22:00,
2013-09-10 17:25:00,81.4,76.1,29.97,ESE,123,4.0,6.0,84,0.00,,,0.20,Wunderground v.1.15,2013-09-10 21:25:00,
2013-09-10 17:28:00,80.7,76.1,29.97,SSE,159,4.0,6.0,86,0.58,,,0.23,Wunderground v.1.15,2013-09-10 21:28:00,
2013-09-10 17:31:00,80.1,76.2,29.97,SE,132,4.0,11.0,88,0.19,,,0.24,Wunderground v.1.15,2013-09-10 21:31:00,
2013-09-10 17:32:00,80.0,76.1,29.97,SE,131,4.0,11.0,88,0.19,,,0.25,Wunderground v.1.15,2013-09-10 21:32:00,
2013-09-10 17:33:00,79.9,76.0,29.97,East,79,3.0,11.0,88,0.38,,,0.26,Wunderground v.1.15,2013-09-10 21:33:00,
2013-09-10 17:34:00,79.8,75.9,29.97,ESE,120,3.0,11.0,88,0.38,,,0.26,Wunderground v.1.15,2013-09-10 21:34:00,
2013-09-10 17:38:00,79.4,75.9,29.97,East,97,3.0,11.0,89,0.12,,,0.26,Wunderground v.1.15,2013-09-10 21:38:00,
2013-09-10 17:39:00,79.4,76.2,29.97,East,92,3.0,11.0,90,0.10,,,0.26,Wunderground v.1.15,2013-09-10 21:39:00,
2013-09-10 17:41:00,79.3,76.4,29.97,ESE,113,2.0,11.0,91,0.07,,,0.26,Wunderground v.1.15,2013-09-10 21:41:00,
2013-09-10 17:42:00,79.3,76.1,29.97,SE,132,2.0,11.0,90,0.06,,,0.26,Wunderground v.1.15,2013-09-10 21:42:00,
2013-09-10 17:45:00,79.2,76.3,29.97,East,86,2.0,11.0,91,0.05,,,0.26,Wunderground v.1.15,2013-09-10 21:45:00,
2013-09-10 17:47:00,79.2,76.7,29.97,SE,129,2.0,11.0,92,0.04,,,0.27,Wunderground v.1.15,2013-09-10 21:47:00,
2013-09-10 17:48:00,79.3,76.8,29.97,East,101,2.0,11.0,92,0.04,,,0.27,Wunderground v.1.15,2013-09-10 21:48:00,
2013-09-10 17:53:00,79.3,76.8,29.97,ESE,122,2.0,11.0,92,0.04,,,0.27,Wunderground v.1.15,2013-09-10 21:53:00,
2013-09-10 17:55:00,79.3,76.8,29.97,ENE,74,2.0,11.0,92,0.04,,,0.27,Wunderground v.1.15,2013-09-10 21:55:00,
2013-09-10 17:56:00,79.4,76.9,29.97,East,98,2.0,11.0,92,0.04,,,0.27,Wunderground v.1.15,2013-09-10 21:56:00,
2013-09-10 18:00:00,79.5,77.0,29.97,ENE,67,1.0,3.0,92,0.04,,,0.27,Wunderground v.1.15,2013-09-10 22:00:00,
2013-09-10 18:01:00,79.4,76.9,29.97,ENE,59,1.0,3.0,92,0.04,,,0.27,Wunderground v.1.15,2013-09-10 22:01:00,
2013-09-10 18:02:00,79.5,77.0,29.97,ENE,70,1.0,3.0,92,0.04,,,0.27,Wunderground v.1.15,2013-09-10 22:02:00,
2013-09-10 18:07:00,79.6,77.1,29.97,ENE,73,2.0,5.0,92,0.00,,,0.27,Wunderground v.1.15,2013-09-10 22:07:00,
2013-09-10 18:08:00,79.7,76.8,29.97,East,87,2.0,5.0,91,0.00,,,0.27,Wunderground v.1.15,2013-09-10 22:08:00,
2013-09-10 18:10:00,79.8,76.9,29.97,ENE,70,3.0,3.0,91,0.00,,,0.27,Wunderground v.1.15,2013-09-10 22:10:00,
2013-09-10 18:11:00,79.9,77.0,29.97,ENE,75,3.0,3.0,91,0.00,,,0.27,Wunderground v.1.15,2013-09-10 22:11:00,
2013-09-10 18:12:00,80.0,77.1,29.97,ENE,65,3.0,3.0,91,0.00,,,0.27,Wunderground v.1.15,2013-09-10 22:12:00,
2013-09-10 18:14:00,80.2,77.3,29.98,ENE,64,3.0,3.0,91,0.00,,,0.27,Wunderground v.1.15,2013-09-10 22:14:00,
2013-09-10 18:17:00,80.4,77.5,29.98,ENE,68,2.0,3.0,91,0.00,,,0.27,Wunderground v.1.15,2013-09-10 22:17:00,
2013-09-10 18:18:00,80.5,77.6,29.98,East,97,2.0,3.0,91,0.00,,,0.27,Wunderground v.1.15,2013-09-10 22:18:00,
2013-09-10 18:20:00,80.7,77.8,29.98,ENE,69,2.0,2.0,91,0.00,,,0.27,Wunderground v.1.15,2013-09-10 22:20:00,
2013-09-10 18:23:00,81.0,78.1,29.98,East,87,1.0,2.0,91,0.00,,,0.27,Wunderground v.1.15,2013-09-10 22:23:00,
2013-09-10 18:24:00,81.1,78.2,29.98,East,81,1.0,3.0,91,0.00,,,0.27,Wunderground v.1.15,2013-09-10 22:24:00,
2013-09-10 18:26:00,81.2,78.0,29.98,NNE,25,1.0,3.0,90,0.00,,,0.27,Wunderground v.1.15,2013-09-10 22:26:00,
2013-09-10 18:27:00,81.2,78.0,29.98,ESE,120,1.0,3.0,90,0.00,,,0.27,Wunderground v.1.15,2013-09-10 22:27:00,
2013-09-10 18:31:00,81.5,77.6,29.98,ENE,59,2.0,3.0,88,0.00,,,0.27,Wunderground v.1.15,2013-09-10 22:31:00,
2013-09-10 18:33:00,81.6,77.4,29.98,East,80,2.0,11.0,87,0.00,,,0.27,Wunderground v.1.15,2013-09-10 22:33:00,
2013-09-10 18:34:00,81.7,77.1,29.98,NE,56,3.0,11.0,86,0.00,,,0.27,Wunderground v.1.15,2013-09-10 22:34:00,
2013-09-10 18:35:00,81.8,77.2,29.98,ENE,72,3.0,11.0,86,0.00,,,0.27,Wunderground v.1.15,2013-09-10 22:35:00,
2013-09-10 18:41:00,82.2,76.9,29.98,ENE,70,4.0,11.0,84,0.00,,,0.27,Wunderground v.1.15,2013-09-10 22:41:00,
2013-09-10 18:43:00,82.3,77.0,29.99,ESE,121,4.0,11.0,84,0.00,,,0.27,Wunderground v.1.15,2013-09-10 22:43:00,
2013-09-10 18:44:00,82.3,76.3,29.99,ENE,64,4.0,11.0,82,0.00,,,0.27,Wunderground v.1.15,2013-09-10 22:44:00,
2013-09-10 18:46:00,82.4,76.3,29.99,SE,139,4.0,11.0,82,0.00,,,0.27,Wunderground v.1.15,2013-09-10 22:46:00,
2013-09-10 18:48:00,82.5,76.1,29.99,East,91,4.0,11.0,81,0.00,,,0.27,Wunderground v.1.15,2013-09-10 22:48:00,
2013-09-10 18:52:00,82.5,76.1,29.99,ENE,66,4.0,11.0,81,0.00,,,0.27,Wunderground v.1.15,2013-09-10 22:52:00,
2013-09-10 18:53:00,82.5,76.1,29.99,SE,142,4.0,11.0,81,0.00,,,0.27,Wunderground v.1.15,2013-09-10 22:53:00,
2013-09-10 18:54:00,82.5,76.1,29.99,ESE,112,4.0,11.0,81,0.00,,,0.27,Wunderground v.1.15,2013-09-10 22:54:00,
2013-09-10 18:56:00,82.5,76.1,29.99,ESE,109,3.0,11.0,81,0.00,,,0.27,Wunderground v.1.15,2013-09-10 22:56:00,
2013-09-10 18:59:00,82.5,76.1,29.99,ENE,75,3.0,11.0,81,0.00,,,0.27,Wunderground v.1.15,2013-09-10 22:59:00,
2013-09-10 19:01:00,82.5,76.1,29.99,SE,130,3.0,3.0,81,0.00,,,0.27,Wunderground v.1.15,2013-09-10 23:01:00,
2013-09-10 19:04:00,82.4,76.3,29.99,ENE,66,3.0,6.0,82,0.00,,,0.27,Wunderground v.1.15,2013-09-10 23:04:00,
2013-09-10 19:07:00,82.4,76.3,29.98,East,98,3.0,6.0,82,0.00,,,0.27,Wunderground v.1.15,2013-09-10 23:07:00,
2013-09-10 19:10:00,82.3,76.6,29.99,NE,56,3.0,6.0,83,0.00,,,0.27,Wunderground v.1.15,2013-09-10 23:10:00,
2013-09-10 19:12:00,82.3,76.6,29.99,ESE,115,3.0,6.0,83,0.00,,,0.27,Wunderground v.1.15,2013-09-10 23:12:00,
2013-09-10 19:13:00,82.3,76.6,29.99,SE,124,3.0,6.0,83,0.00,,,0.27,Wunderground v.1.15,2013-09-10 23:13:00,
2013-09-10 19:15:00,82.2,76.2,29.99,ENE,75,3.0,6.0,82,0.00,,,0.27,Wunderground v.1.15,2013-09-10 23:15:00,
2013-09-10 19:17:00,82.1,76.1,29.99,NE,56,3.0,6.0,82,0.00,,,0.27,Wunderground v.1.15,2013-09-10 23:17:00,
2013-09-10 19:19:00,82.1,76.1,29.99,ENE,72,3.0,6.0,82,0.00,,,0.27,Wunderground v.1.15,2013-09-10 23:19:00,
2013-09-10 19:20:00,82.1,76.1,29.99,SE,124,3.0,3.0,82,0.00,,,0.27,Wunderground v.1.15,2013-09-10 23:20:00,
2013-09-10 19:23:00,82.0,76.0,29.99,SE,143,3.0,3.0,82,0.00,,,0.27,Wunderground v.1.15,2013-09-10 23:23:00,
2013-09-10 19:24:00,82.0,76.0,29.99,East,91,3.0,3.0,82,0.00,,,0.27,Wunderground v.1.15,2013-09-10 23:24:00,
2013-09-10 19:25:00,82.0,76.0,29.99,ENE,65,3.0,3.0,82,0.00,,,0.27,Wunderground v.1.15,2013-09-10 23:25:00,
2013-09-10 19:30:00,81.8,75.8,29.99,East,79,2.0,2.0,82,0.00,,,0.27,Wunderground v.1.15,2013-09-10 23:30:00,
2013-09-10 19:33:00,81.8,75.8,29.99,SE,131,2.0,11.0,82,0.00,,,0.27,Wunderground v.1.15,2013-09-10 23:33:00,
2013-09-10 19:36:00,81.8,75.8,29.99,ENE,58,2.0,11.0,82,0.00,,,0.27,Wunderground v.1.15,2013-09-10 23:36:00,
2013-09-10 19:37:00,81.8,75.8,29.99,SE,124,3.0,11.0,82,0.00,,,0.27,Wunderground v.1.15,2013-09-10 23:37:00,
2013-09-10 19:40:00,81.8,75.4,29.98,ENE,68,2.0,2.0,81,0.00,,,0.27,Wunderground v.1.15,2013-09-10 23:40:00,
2013-09-10 19:42:00,81.7,75.3,29.98,NE,56,2.0,11.0,81,0.00,,,0.27,Wunderground v.1.15,2013-09-10 23:42:00,
2013-09-10 19:43:00,81.7,75.3,29.98,ENE,57,2.0,11.0,81,0.00,,,0.27,Wunderground v.1.15,2013-09-10 23:43:00,
2013-09-10 19:44:00,81.7,75.7,29.98,ENE,72,2.0,11.0,82,0.00,,,0.27,Wunderground v.1.15,2013-09-10 23:44:00,
2013-09-10 19:50:00,81.6,75.6,29.99,East,89,2.0,11.0,82,0.00,,,0.27,Wunderground v.1.15,2013-09-10 23:50:00,
2013-09-10 19:52:00,81.6,75.6,29.99,East,79,2.0,11.0,82,0.00,,,0.27,Wunderground v.1.15,2013-09-10 23:52:00,
2013-09-10 19:56:00,81.6,75.2,29.99,ENE,78,2.0,11.0,81,0.00,,,0.27,Wunderground v.1.15,2013-09-10 23:56:00,
2013-09-10 19:57:00,81.6,75.6,29.99,ENE,63,1.0,11.0,82,0.00,,,0.27,Wunderground v.1.15,2013-09-10 23:57:00,
2013-09-10 19:59:00,81.6,75.6,29.99,NE,54,1.0,11.0,82,0.00,,,0.27,Wunderground v.1.15,2013-09-10 23:59:00,
2013-09-10 20:00:00,81.6,75.6,29.99,East,87,1.0,1.0,82,0.00,,,0.27,Wunderground v.1.15,2013-09-11 00:00:00,
2013-09-10 20:01:00,81.6,75.6,29.99,ENE,76,1.0,2.0,82,0.00,,,0.27,Wunderground v.1.15,2013-09-11 00:01:00,
2013-09-10 20:04:00,81.7,75.7,29.99,SE,131,1.0,3.0,82,0.00,,,0.27,Wunderground v.1.15,2013-09-11 00:04:00,
2013-09-10 20:07:00,81.7,75.7,29.99,East,91,2.0,4.0,82,0.00,,,0.27,Wunderground v.1.15,2013-09-11 00:07:00,
2013-09-10 20:09:00,81.9,75.9,29.99,NE,53,2.0,5.0,82,0.00,,,0.27,Wunderground v.1.15,2013-09-11 00:09:00,
2013-09-10 20:10:00,81.9,75.9,29.99,East,98,2.0,2.0,82,0.00,,,0.27,Wunderground v.1.15,2013-09-11 00:10:00,
2013-09-10 20:15:00,82.1,75.3,29.99,ENE,68,3.0,10.0,80,0.00,,,0.27,Wunderground v.1.15,2013-09-11 00:15:00,
2013-09-10 20:16:00,82.1,74.9,29.99,ESE,110,4.0,10.0,79,0.00,,,0.27,Wunderground v.1.15,2013-09-11 00:16:00,
2013-09-10 20:17:00,82.1,74.9,29.99,NE,49,4.0,10.0,79,0.00,,,0.27,Wunderground v.1.15,2013-09-11 00:17:00,
2013-09-10 20:18:00,82.1,74.9,29.99,ENE,74,4.0,10.0,79,0.00,,,0.27,Wunderground v.1.15,2013-09-11 00:18:00,
2013-09-10 20:22:00,82.1,75.3,29.99,NE,53,4.0,6.0,80,0.00,,,0.27,Wunderground v.1.15,2013-09-11 00:22:00,
2013-09-10 20:24:00,82.0,75.2,29.99,ESE,113,4.0,6.0,80,0.00,,,0.27,Wunderground v.1.15,2013-09-11 00:24:00,
2013-09-10 20:26:00,81.8,75.4,29.99,East,91,4.0,6.0,81,0.00,,,0.27,Wunderground v.1.15,2013-09-11 00:26:00,
2013-09-10 20:27:00,81.6,75.6,29.99,East,90,4.0,6.0,82,0.00,,,0.27,Wunderground v.1.15,2013-09-11 00:27:00,
2013-09-10 20:28:00,81.6,75.6,29.99,East,91,3.0,6.0,82,0.00,,,0.27,Wunderground v.1.15,2013-09-11 00:28:00,
2013-09-10 20:31:00,81.4,75.4,29.99,SE,139,3.0,7.0,82,0.00,,,0.27,Wunderground v.1.15,2013-09-11 00:31:00,
2013-09-10 20:33:00,81.3,75.6,29.99,East,80,3.0,7.0,83,0.00,,,0.27,Wunderground v.1.15,2013-09-11 00:33:00,
2013-09-10 20:36:00,81.1,75.4,29.99,ESE,113,3.0,7.0,83,0.00,,,0.27,Wunderground v.1.15,2013-09-11 00:36:00,
2013-09-10 20:39:00,81.0,75.7,29.99,ESE,115,3.0,7.0,84,0.00,,,0.27,Wunderground v.1.15,2013-09-11 00:39:00,
2013-09-10 20:40:00,80.9,75.6,29.99,ESE,111,2.0,2.0,84,0.00,,,0.27,Wunderground v.1.15,2013-09-11 00:40:00,
2013-09-10 20:43:00,80.7,75.8,29.99,ESE,115,2.0,7.0,85,0.00,,,0.27,Wunderground v.1.15,2013-09-11 00:43:00,
2013-09-10 20:44:00,80.6,75.7,29.99,SE,141,2.0,7.0,85,0.00,,,0.27,Wunderground v.1.15,2013-09-11 00:44:00,
2013-09-10 20:47:00,80.5,75.9,30.00,ESE,122,1.0,7.0,86,0.00,,,0.27,Wunderground v.1.15,2013-09-11 00:47:00,
2013-09-10 20:49:00,80.4,75.8,30.00,ESE,117,1.0,7.0,86,0.00,,,0.27,Wunderground v.1.15,2013-09-11 00:49:00,
2013-09-10 20:50:00,80.4,75.8,30.00,SE,133,1.0,7.0,86,0.00,,,0.27,Wunderground v.1.15,2013-09-11 00:50:00,
2013-09-10 20:51:00,80.3,75.7,30.00,East,87,1.0,7.0,86,0.00,,,0.27,Wunderground v.1.15,2013-09-11 00:51:00,
2013-09-10 20:53:00,80.2,75.6,30.00,ESE,117,1.0,7.0,86,0.00,,,0.27,Wunderground v.1.15,2013-09-11 00:53:00,
2013-09-10 20:56:00,80.2,75.6,30.00,ESE,119,1.0,7.0,86,0.00,,,0.27,Wunderground v.1.15,2013-09-11 00:56:00,
2013-09-10 20:59:00,80.1,75.5,30.00,East,99,1.0,7.0,86,0.00,,,0.27,Wunderground v.1.15,2013-09-11 00:59:00,
2013-09-10 21:02:00,80.1,75.5,30.00,East,99,1.0,1.0,86,0.00,,,0.27,Wunderground v.1.15,2013-09-11 01:02:00,
2013-09-10 21:04:00,80.1,75.5,30.00,East,101,1.0,1.0,86,0.00,,,0.27,Wunderground v.1.15,2013-09-11 01:04:00,
2013-09-10 21:05:00,80.1,75.5,30.00,ENE,60,1.0,1.0,86,0.00,,,0.27,Wunderground v.1.15,2013-09-11 01:05:00,
2013-09-10 21:09:00,80.0,75.4,30.00,ENE,59,1.0,1.0,86,0.00,,,0.27,Wunderground v.1.15,2013-09-11 01:09:00,
2013-09-10 21:11:00,80.0,75.4,30.00,East,81,0.0,0.0,86,0.00,,,0.27,Wunderground v.1.15,2013-09-11 01:11:00,
2013-09-10 21:12:00,80.0,75.4,30.00,East,83,0.0,1.0,86,0.00,,,0.27,Wunderground v.1.15,2013-09-11 01:12:00,
2013-09-10 21:13:00,80.0,75.4,30.00,ENE,75,0.0,1.0,86,0.00,,,0.27,Wunderground v.1.15,2013-09-11 01:13:00,
2013-09-10 21:16:00,80.1,75.5,30.00,East,84,0.0,2.0,86,0.00,,,0.27,Wunderground v.1.15,2013-09-11 01:16:00,
2013-09-10 21:17:00,80.1,75.5,30.00,ESE,123,1.0,2.0,86,0.00,,,0.27,Wunderground v.1.15,2013-09-11 01:17:00,
2013-09-10 21:18:00,80.1,75.5,30.00,East,90,1.0,2.0,86,0.00,,,0.27,Wunderground v.1.15,2013-09-11 01:18:00,
2013-09-10 21:21:00,80.2,75.3,30.00,East,90,1.0,1.0,85,0.00,,,0.27,Wunderground v.1.15,2013-09-11 01:21:00,
2013-09-10 21:23:00,80.3,75.4,30.01,East,92,1.0,1.0,85,0.00,,,0.27,Wunderground v.1.15,2013-09-11 01:23:00,
2013-09-10 21:24:00,80.3,75.4,30.01,SE,135,1.0,1.0,85,0.00,,,0.27,Wunderground v.1.15,2013-09-11 01:24:00,
2013-09-10 21:28:00,80.5,75.6,30.01,SE,124,1.0,4.0,85,0.00,,,0.27,Wunderground v.1.15,2013-09-11 01:28:00,
2013-09-10 21:30:00,80.5,75.6,30.01,NE,56,1.0,3.0,85,0.00,,,0.27,Wunderground v.1.15,2013-09-11 01:30:00,
2013-09-10 21:31:00,80.6,75.3,30.01,ENE,77,2.0,9.0,84,0.00,,,0.27,Wunderground v.1.15,2013-09-11 01:31:00,
2013-09-10 21:32:00,80.7,75.4,30.01,East,89,2.0,9.0,84,0.00,,,0.27,Wunderground v.1.15,2013-09-11 01:32:00,
2013-09-10 21:35:00,80.8,75.5,30.01,East,89,2.0,9.0,84,0.00,,,0.27,Wunderground v.1.15,2013-09-11 01:35:00,
2013-09-10 21:37:00,80.9,75.6,30.01,NE,55,2.0,9.0,84,0.00,,,0.27,Wunderground v.1.15,2013-09-11 01:37:00,
2013-09-10 21:41:00,81.1,75.4,30.01,ENE,64,2.0,9.0,83,0.00,,,0.27,Wunderground v.1.15,2013-09-11 01:41:00,
2013-09-10 21:44:00,81.2,75.5,30.01,East,89,3.0,9.0,83,0.00,,,0.27,Wunderground v.1.15,2013-09-11 01:44:00,
2013-09-10 21:46:00,81.2,75.5,30.01,ENE,59,3.0,9.0,83,0.00,,,0.27,Wunderground v.1.15,2013-09-11 01:46:00,
2013-09-10 21:47:00,81.3,75.6,30.01,East,88,3.0,9.0,83,0.00,,,0.27,Wunderground v.1.15,2013-09-11 01:47:00,
2013-09-10 21:50:00,81.3,75.6,30.01,East,82,3.0,9.0,83,0.00,,,0.27,Wunderground v.1.15,2013-09-11 01:50:00,
2013-09-10 21:51:00,81.4,75.7,30.01,ESE,122,3.0,9.0,83,0.00,,,0.27,Wunderground v.1.15,2013-09-11 01:51:00,
2013-09-10 21:53:00,81.4,75.7,30.01,East,83,3.0,9.0,83,0.00,,,0.27,Wunderground v.1.15,2013-09-11 01:53:00,
2013-09-10 21:57:00,81.4,75.4,30.01,ENE,70,3.0,9.0,82,0.00,,,0.27,Wunderground v.1.15,2013-09-11 01:57:00,
2013-09-10 21:59:00,81.4,75.4,30.01,SE,130,3.0,9.0,82,0.00,,,0.27,Wunderground v.1.15,2013-09-11 01:59:00,
2013-09-10 22:01:00,81.5,75.5,30.01,ENE,62,3.0,4.0,82,0.00,,,0.27,Wunderground v.1.15,2013-09-11 02:01:00,
2013-09-10 22:03:00,81.5,75.5,30.01,East,95,3.0,4.0,82,0.00,,,0.27,Wunderground v.1.15,2013-09-11 02:03:00,
2013-09-10 22:05:00,81.5,75.5,30.01,NE,56,3.0,4.0,82,0.00,,,0.27,Wunderground v.1.15,2013-09-11 02:05:00,
2013-09-10 22:08:00,81.4,75.4,30.01,NE,51,3.0,5.0,82,0.00,,,0.27,Wunderground v.1.15,2013-09-11 02:08:00,
2013-09-10 22:11:00,81.4,75.4,30.01,East,84,3.0,4.0,82,0.00,,,0.27,Wunderground v.1.15,2013-09-11 02:11:00,
2013-09-10 22:12:00,81.4,75.4,30.01,ESE,121,3.0,4.0,82,0.00,,,0.27,Wunderground v.1.15,2013-09-11 02:12:00,
2013-09-10 22:13:00,81.4,75.4,30.01,NE,49,3.0,4.0,82,0.00,,,0.27,Wunderground v.1.15,2013-09-11 02:13:00,
2013-09-10 22:15:00,81.4,75.4,30.01,East,91,3.0,4.0,82,0.00,,,0.27,Wunderground v.1.15,2013-09-11 02:15:00,
2013-09-10 22:17:00,81.3,75.3,30.01,East,80,3.0,5.0,82,0.00,,,0.27,Wunderground v.1.15,2013-09-11 02:17:00,
2013-09-10 22:19:00,81.3,75.3,30.01,SE,139,3.0,5.0,82,0.00,,,0.27,Wunderground v.1.15,2013-09-11 02:19:00,
2013-09-10 22:21:00,81.3,75.3,30.01,ESE,112,3.0,3.0,82,0.00,,,0.27,Wunderground v.1.15,2013-09-11 02:21:00,
2013-09-10 22:22:00,81.3,75.3,30.01,East,89,2.0,3.0,82,0.00,,,0.27,Wunderground v.1.15,2013-09-11 02:22:00,
2013-09-10 22:24:00,81.2,75.2,30.01,ENE,65,2.0,5.0,82,0.00,,,0.27,Wunderground v.1.15,2013-09-11 02:24:00,
2013-09-10 22:25:00,81.2,75.2,30.01,ENE,75,3.0,5.0,82,0.00,,,0.27,Wunderground v.1.15,2013-09-11 02:25:00,
2013-09-10 22:27:00,81.2,75.2,30.01,NE,45,3.0,5.0,82,0.00,,,0.27,Wunderground v.1.15,2013-09-11 02:27:00,
2013-09-10 22:30:00,81.3,75.3,30.01,ESE,103,3.0,3.0,82,0.00,,,0.27,Wunderground v.1.15,2013-09-11 02:30:00,
2013-09-10 22:33:00,81.3,75.6,30.01,ENE,75,3.0,7.0,83,0.00,,,0.27,Wunderground v.1.15,2013-09-11 02:33:00,
2013-09-10 22:34:00,81.3,75.6,30.01,ESE,115,3.0,7.0,83,0.00,,,0.27,Wunderground v.1.15,2013-09-11 02:34:00,
2013-09-10 22:36:00,81.3,75.6,30.01,East,101,3.0,7.0,83,0.00,,,0.27,Wunderground v.1.15,2013-09-11 02:36:00,
2013-09-10 22:39:00,81.3,75.6,30.01,ENE,76,3.0,7.0,83,0.00,,,0.27,Wunderground v.1.15,2013-09-11 02:39:00,
2013-09-10 22:42:00,81.3,75.6,30.01,East,86,2.0,7.0,83,0.00,,,0.27,Wunderground v.1.15,2013-09-11 02:42:00,
2013-09-10 22:45:00,81.3,75.6,30.01,SE,126,2.0,7.0,83,0.00,,,0.27,Wunderground v.1.15,2013-09-11 02:45:00,
2013-09-10 22:47:00,81.3,75.6,30.01,East,81,3.0,7.0,83,0.00,,,0.27,Wunderground v.1.15,2013-09-11 02:47:00,
2013-09-10 22:49:00,81.3,75.6,30.01,SE,136,3.0,7.0,83,0.00,,,0.27,Wunderground v.1.15,2013-09-11 02:49:00,
2013-09-10 22:50:00,81.3,75.6,30.01,East,81,2.0,7.0,83,0.00,,,0.27,Wunderground v.1.15,2013-09-11 02:50:00,
2013-09-10 22:52:00,81.3,75.6,30.01,ESE,122,3.0,7.0,83,0.00,,,0.27,Wunderground v.1.15,2013-09-11 02:52:00,
2013-09-10 22:53:00,81.3,75.6,30.01,ESE,117,3.0,7.0,83,0.00,,,0.27,Wunderground v.1.15,2013-09-11 02:53:00,
2013-09-10 22:57:00,81.4,75.7,30.01,ENE,58,3.0,7.0,83,0.00,,,0.27,Wunderground v.1.15,2013-09-11 02:57:00,
2013-09-10 22:59:00,81.3,75.6,30.01,SE,138,2.0,7.0,83,0.00,,,0.27,Wunderground v.1.15,2013-09-11 02:59:00,
2013-09-10 23:00:00,81.3,75.6,30.01,SE,124,2.0,2.0,83,0.00,,,0.27,Wunderground v.1.15,2013-09-11 03:00:00,
2013-09-10 23:01:00,81.3,75.6,30.01,East,85,2.0,3.0,83,0.00,,,0.27,Wunderground v.1.15,2013-09-11 03:01:00,
2013-09-10 23:04:00,81.3,75.6,30.01,ESE,114,2.0,3.0,83,0.00,,,0.27,Wunderground v.1.15,2013-09-11 03:04:00,
2013-09-10 23:05:00,81.3,75.6,30.01,ENE,71,2.0,4.0,83,0.00,,,0.27,Wunderground v.1.15,2013-09-11 03:05:00,
2013-09-10 23:08:00,81.4,75.4,30.01,NE,49,3.0,4.0,82,0.00,,,0.27,Wunderground v.1.15,2013-09-11 03:08:00,
2013-09-10 23:09:00,81.3,74.5,30.01,ESE,115,3.0,7.0,80,0.00,,,0.27,Wunderground v.1.15,2013-09-11 03:09:00,
2013-09-10 23:11:00,81.2,73.7,30.01,ESE,116,4.0,6.0,78,0.00,,,0.27,Wunderground v.1.15,2013-09-11 03:11:00,
2013-09-10 23:12:00,81.0,73.1,30.02,ENE,71,4.0,7.0,77,0.00,,,0.27,Wunderground v.1.15,2013-09-11 03:12:00,
2013-09-10 23:13:00,80.9,72.6,30.01,ENE,71,5.0,7.0,76,0.00,,,0.27,Wunderground v.1.15,2013-09-11 03:13:00,
2013-09-10 23:15:00,80.5,72.2,30.02,ENE,65,6.0,8.0,76,0.00,,,0.27,Wunderground v.1.15,2013-09-11 03:15:00,
2013-09-10 23:16:00,80.4,72.5,30.01,ENE,67,6.0,8.0,77,0.00,,,0.27,Wunderground v.1.15,2013-09-11 03:16:00,
2013-09-10 23:18:00,80.1,72.2,30.01,NE,54,5.0,8.0,77,0.00,,,0.27,Wunderground v.1.15,2013-09-11 03:18:00,
2013-09-10 23:21:00,79.7,72.2,30.01,ENE,60,4.0,5.0,78,0.00,,,0.27,Wunderground v.1.15,2013-09-11 03:21:00,
2013-09-10 23:22:00,79.6,72.1,30.01,NE,45,4.0,6.0,78,0.00,,,0.27,Wunderground v.1.15,2013-09-11 03:22:00,
2013-09-10 23:23:00,79.4,72.3,30.01,ENE,66,4.0,6.0,79,0.00,,,0.27,Wunderground v.1.15,2013-09-11 03:23:00,
2013-09-10 23:24:00,79.3,72.2,30.01,ESE,110,4.0,6.0,79,0.00,,,0.27,Wunderground v.1.15,2013-09-11 03:24:00,
2013-09-10 23:27:00,79.0,71.9,30.01,ENE,64,3.0,6.0,79,0.00,,,0.27,Wunderground v.1.15,2013-09-11 03:27:00,
2013-09-10 23:30:00,78.8,72.1,30.01,East,85,3.0,3.0,80,0.00,,,0.27,Wunderground v.1.15,2013-09-11 03:30:00,
2013-09-10 23:33:00,78.6,72.3,30.01,East,91,2.0,8.0,81,0.00,,,0.27,Wunderground v.1.15,2013-09-11 03:33:00,
2013-09-10 23:36:00,78.5,72.2,30.01,NE,55,2.0,8.0,81,0.00,,,0.27,Wunderground v.1.15,2013-09-11 03:36:00,
2013-09-10 23:37:00,78.5,72.2,30.01,ENE,61,2.0,8.0,81,0.00,,,0.27,Wunderground v.1.15,2013-09-11 03:37:00,
2013-09-10 23:41:00,78.5,72.5,30.00,East,79,1.0,3.0,82,0.00,,,0.27,Wunderground v.1.15,2013-09-11 03:41:00,
2013-09-10 23:42:00,78.5,72.5,30.00,East,87,1.0,8.0,82,0.00,,,0.27,Wunderground v.1.15,2013-09-11 03:42:00,
2013-09-10 23:46:00,78.5,72.5,30.00,East,89,1.0,8.0,82,0.00,,,0.27,Wunderground v.1.15,2013-09-11 03:46:00,
2013-09-10 23:47:00,78.5,72.9,30.00,East,89,1.0,8.0,83,0.00,,,0.27,Wunderground v.1.15,2013-09-11 03:47:00,
2013-09-10 23:51:00,78.4,72.8,30.00,East,88,0.0,8.0,83,0.00,,,0.27,Wunderground v.1.15,2013-09-11 03:51:00,
2013-09-10 23:52:00,78.4,72.8,30.00,ESE,113,0.0,8.0,83,0.00,,,0.27,Wunderground v.1.15,2013-09-11 03:52:00,
2013-09-10 23:57:00,78.5,73.6,30.00,SE,125,1.0,8.0,85,0.00,,,0.27,Wunderground v.1.15,2013-09-11 03:57:00,
2013-09-10 23:58:00,78.5,73.6,30.00,SE,125,1.0,8.0,85,0.00,,,0.27,Wunderground v.1.15,2013-09-11 03:58:00,